     2              OBSERVATION DATA    GPS                 RINEX VERSION / TYPE
TRRINEXO-V2.3.1-LH UCLA/SCEC 28-FEB-1994                    PGM / RUN BY / DATE
                                                            COMMENT
Original Marker Name: COCHRAN 1975                          COMMENT
Campaign Name: Northridge 1994                              COMMENT
4-Character Station Name: 0115                              COMMENT
6-Character Antenna Code: TRMSST                            COMMENT
Vertical Measurement Point: BGP                             COMMENT
Vertical Offset to Rinex Ref. Point: 0.0597                 COMMENT
Radial Measurement Point: NGP                               COMMENT
Radial Offset to Rinex Ref. Point: 0.2334                   COMMENT
Antenna Height from Field Measurement: 1.5000 m             COMMENT
Original XYZ: -2531315.3553 -4629304.3280 3572284.3857      COMMENT
New XYZ position is based on association with SCEC monument COMMENT
E1E9I0W2+0011. Position of that monument is believed to be  COMMENT
valid to within 1 m horizontally; vertical accuracy         COMMENT
should be no worse than 3-times this value.                 COMMENT
                                                            COMMENT
Revised Rinex header created by UCSD GPS archive for        COMMENT
GSAC on 19-Apr-1999 (1999:109) 15:01:46 GMT                 COMMENT
For assistance contact dagnew@ucsd.edu or hjohnson@ucsd.edu COMMENT
                                                            COMMENT
COCHRAN 1975                                                MARKER NAME
W. VANDERHORST CALIF DEPT TRANSPORTATION DISTRICT 7         OBSERVER / AGENCY
1534 TRIMBLE 4000 SSE 5.52                                  REC # / TYPE / VERS
61983 TR 4000SST L1/L2 GEO                                  ANT # / TYPE
 -2531340.0000 -4629307.0000  3572238.0000                  APPROX POSITION XYZ
        1.4220        0.0000        0.0000                  ANTENNA: DELTA H/E/N
     1     2     0                                          WAVELENGTH FACT L1/2
     3    C1    L1    L2                                    # / TYPES OF OBSERV
    30                                                      INTERVAL
  1994     2    17    21     0    0.000000                  TIME OF FIRST OBS
  1994     2    17    22    59   60.000000                  TIME OF LAST OBS
     0                                                      # OF SATELLITES
                                                            END OF HEADER
 94  2 17 21  0  0.0000000  0  6 31 18 19 27 28 29
  22709271.602     -288391.89116   -133396.70816
  20152949.211      -50747.50618    -24385.68419
  20944124.219     -153081.09017    -78709.70719
  22407203.648     -307309.01716   -159573.95917
  23331386.336      -98298.40616    -47122.08816
  21370707.898      165855.31617     87700.22419
 94  2 17 21  0 30.0000000  0  6 31 18 19 27 28 29
  22694769.836     -364599.974 6   -192779.549 6
  20150622.039      -62976.814 8    -33914.968 9
  20936755.188     -191805.298 7   -108884.341 9
  22392411.977     -385039.508 6   -220143.097 7
  23326924.211     -121744.427 5    -65391.627 6
  21378719.852      207958.094 7    120507.604 9
 94  2 17 21  1  0.0000000  0  6 31 18 19 27 28 29
  22680339.922     -440430.405 6   -251868.150 6
  20148392.195      -74695.723 8    -43046.545 9
  20929427.000     -230315.343 7   -138892.105 9
  22377650.922     -462610.659 6   -280588.073 7
  23322565.523     -144647.793 5    -83238.316 6
  21386803.859      250439.321 7    153609.873 9
 94  2 17 21  1 30.0000000  0  6 31 18 19 27 28 29
  22665986.805     -515856.433 6   -310641.627 7
  20146261.141      -85893.932 8    -51772.388 9
  20922142.461     -268595.511 7   -168720.754 9
  22362920.922     -540015.574 6   -340903.523 7
  23318311.367     -167004.619 6   -100659.121 6
  21394966.078      293331.362 7    187032.250 9
 94  2 17 21  2  0.0000000  0  6 31 18 19 27 28 29
  22651718.156     -590837.966 6   -369068.748 6
  20144233.641      -96549.069 8    -60075.051 9
  20914907.242     -306616.740 7   -198347.637 9
  22348229.930     -617216.571 6   -401060.079 7
  23314166.148     -188789.658 6   -117634.390 6
  21403215.156      336681.291 7    220811.428 9
 94  2 17 21  2 29.9990000  0  6 31 18 19 27 28 29
  22637537.112     -665361.870 6   -427139.291 6
  20142310.128     -106657.323 8    -67951.569 9
  20907721.050     -344380.422 7   -227773.840 9
  22333575.487     -694225.779 6   -461067.190 7
  23310130.276     -209998.293 6   -134160.524 6
  21411554.354      380503.164 7    254958.354 9
 94  2 17 21  2 59.9990000  0  6 31 18 19 27 28 29
  22623450.448     -739390.202 6   -484823.685 7
  20140493.909     -116202.218 8    -75389.107 9
  20900589.706     -381856.647 7   -256976.052 9
  22318960.878     -771027.225 6   -520912.408 7
  23306210.612     -230592.459 6   -150207.879 6
  21419989.315      424829.305 7    289498.214 9
 94  2 17 21  3 29.9990000  0  6 31 18 19 27 28 29
  22609472.081     -812842.615 6   -542059.312 7
  20138796.323     -125122.803 8    -82340.175 9
  20893525.917     -418977.234 7   -285901.151 9
  22304399.847     -847546.150 6   -580537.488 7
  23302421.081     -250505.688 6   -165724.624 6
  21428530.597      469714.040 7    324473.341 9
 94  2 17 21  3 59.9990000  0  6 31 18 19 27 28 29
  22595618.815     -885639.163 6   -598783.885 7
  20137235.667     -133324.847 8    -88731.341 9
  20886547.378     -455650.345 7   -314477.569 9
  22289906.245     -923709.093 6   -639885.179 7
  23298778.808     -269650.694 6   -180642.755 6
  21437193.136      515236.072 7    359945.059 9
 94  2 17 21  4 29.9990000  0  6 31 18 19 27 28 29
  22581905.620     -957705.382 6   -654939.366 7
  20135825.878     -140733.117 8    -94503.982 9
  20879667.839     -491801.617 7   -342647.360 9
  22275493.323     -999449.665 6   -698903.751 7
  23295298.151     -287940.953 6   -194894.861 6
  21445990.690      561466.467 7    395968.747 9
 94  2 17 21  4 59.9990000  0  6 31 18 19 27 28 29
  22568329.050    -1029053.996 6   -710535.655 6
  20134564.854     -147360.183 8    -99667.889 9
  20872887.019     -527435.515 7   -370414.006 9
  22261161.729    -1074763.501 6   -757589.805 7
  23291978.690     -305383.721 6   -208486.597 6
  21454920.300      608390.614 7    432533.019 9
 94  2 17 21  5 29.9990000  0  6 31 18 19 27 28 29
  22554874.378    -1099757.244 6   -765629.053 7
  20133440.714     -153266.032 8   -104269.812 9
  20866193.058     -562614.175 7   -397825.925 9
  22246899.362    -1149711.581 6   -815990.847 7
  23288808.284     -322044.072 6   -221468.667 6
  21463970.261      655950.089 7    469592.351 9
 94  2 17 21  5 59.9990000  0  6 31 18 19 27 28 29
  22541528.347    -1169890.604 6   -820278.368 7
  20132438.534     -158534.148 8   -108374.804 9
  20859570.479     -597414.924 7   -424943.364 9
  22232692.722    -1224368.657 6   -874165.135 7
  23285774.870     -337984.076 6   -233889.419 6
  21473126.987      704068.452 7    507087.189 9
 94  2 17 21  6 29.9990000  0  6 31 18 19 27 28 29
  22528281.198    -1239502.929 6   -874521.668 7
  20131543.073     -163238.924 8   -112040.830 9
  20853007.175     -631905.418 7   -451819.040 9
  22218534.112    -1298771.198 6   -932141.091 7
  23282869.112     -353255.901 6   -245789.525 6
  21482378.081      752683.038 7    544968.684 9
 94  2 17 21  6 59.9990000  0  6 31 18 19 27 28 29
  22515129.019    -1308620.366 6   -928379.311 6
  20130750.409     -167402.741 8   -115285.330 9
  20846499.276     -666103.903 7   -478467.185 9
  22204421.331    -1372936.034 6   -989931.818 7
  23280086.104     -367879.487 6   -257184.508 6
  21491717.464      801761.685 7    583211.794 9
 94  2 17 21  7 29.9990000  0  6 31 18 19 27 28 29
  22502070.183    -1377249.319 6   -981856.315 7
  20130058.948     -171036.717 8   -118116.966 9
  20840044.745     -700022.203 7   -504897.003 9
  22190350.659    -1446877.609 6  -1047548.578 7
  23277423.308     -381871.314 6   -268087.204 6
  21501141.956      851289.292 7    621804.733 9
 94  2 17 21  7 59.9990000  0  6 31 18 19 27 28 29
  22489107.644    -1445362.137 6  -1034931.121 7
  20129472.198     -174121.046 8   -120520.307 9
  20833643.948     -733660.020 7   -531108.262 9
  22176324.386    -1520586.508 6  -1104984.037 7
  23274882.487     -395224.268 6   -278492.068 6
  21510654.644      901278.575 7    660757.425 9
 94  2 17 21  8 29.9990000  0  6 31 18 19 27 28 29
  22476247.776    -1512942.116 6  -1087590.720 7
  20128996.214     -176622.283 8   -122469.291 9
  20827300.011     -766998.313 7   -557086.116 9
  22162344.808    -1594046.909 6  -1162225.866 7
  23272464.073     -407934.671 6   -288396.236 6
  21520259.534      951752.755 7    700087.961 9
 94  2 17 21  8 59.9990000  0  6 31 18 19 27 28 29
  22463487.894    -1579996.296 6  -1139840.592 7
  20128633.026     -178530.218 8   -123955.965 9
  20821013.862     -800032.311 7   -582826.861 9
  22148408.815    -1667281.169 6  -1219291.480 7
  23270165.472     -420014.762 6   -297809.231 6
  21529956.362     1002710.849 6    739795.577 9
 94  2 17 21  9 29.9990000  0  6 31 18 19 27 28 29
  22450827.956    -1646524.374 6  -1191680.512 7
  20128380.565     -179857.014 8   -124989.807 9
  20814782.823     -832775.987 7   -608341.381 9
  22134513.620    -1740302.042 6  -1276190.816 7
  23267981.214     -431494.667 6   -306754.540 6
  21539744.167     1054145.991 6    779874.909 8
 94  2 17 21  9 59.9990000  0  6 31 18 19 27 28 29
  22438266.190    -1712531.119 6  -1243114.188 7
  20128240.175     -180593.696 8   -125563.825 9
  20808608.933     -865219.954 7   -633622.357 9
  22120662.026    -1813093.583 6  -1332911.456 7
  23265914.019     -442356.610 6   -315218.322 6
  21549624.175     1106064.600 7    820330.966 8
 94  2 17 21 10 29.9990000  0  6 31 18 19 27 28 29
  22425800.347    -1778039.946 6  -1294159.865 7
  20128210.714     -180750.798 8   -125686.223 9
  20802491.503     -897366.393 7   -658671.491 9
  22106853.144    -1885657.765 6  -1389454.926 7
  23263963.542     -452606.763 6   -323205.400 6
  21559593.425     1158451.810 6    861152.172 8
 94  2 17 21 10 59.9990000  0  6 31 18 19 27 28 29
  22413428.870    -1843052.559 6  -1344818.889 6
  20128288.409     -180341.104 8   -125366.962 9
  20796427.690     -929232.397 7   -683502.108 9
  22093087.034    -1958000.238 6  -1445825.639 7
  23262128.956     -462245.406 6   -330715.964 6
  21569650.831     1211303.503 7    902335.302 8
 94  2 17 21 11 29.9990000  0  6 31 18 19 27 28 29
  22401148.948    -1907588.203 6  -1395106.241 7
  20128469.058     -179391.016 8   -124626.619 9
  20790410.769     -960852.605 7   -708141.199 9
  22079360.464    -2030133.637 6  -1502033.429 7
  23260409.136     -471284.412 6   -337759.263 6
  21579792.011     1264594.412 7    943860.682 8
 94  2 17 21 11 59.9990000  0  6 31 18 19 27 28 29
  22388968.683    -1971597.838 6  -1444983.713 7
  20128763.776     -177843.197 8   -123420.512 9
  20784447.487     -992189.536 7   -732559.552 9
  22065681.409    -2102018.135 6  -1558047.272 7
  23258814.355     -479666.265 6   -344290.503 6
  21590025.292     1318371.047 7    985764.548 8
 94  2 17 21 12 29.9990000  0  6 31 18 19 27 28 29
  22376898.792    -2035017.130 6  -1494401.186 7
  20129177.558     -175667.810 7   -121725.392 9
  20778542.104    -1023222.124 7   -756740.753 9
  22052054.073    -2173630.689 6  -1613849.202 7
  23257349.456     -487363.116 6   -350287.984 6
  21600356.995     1372662.808 7   1028069.818 8
 94  2 17 21 12 59.9990000  0  6 31 18 19 27 28 29
  22364944.581    -2097837.176 6  -1543351.728 7
  20129707.620     -172882.756 8   -119555.207 9
  20772694.870    -1053949.548 7   -780684.164 9
  22038474.800    -2244986.851 6  -1669451.352 7
  23256013.862     -494375.725 6   -355752.287 6
  21610782.753     1427452.231 7   1070762.862 9
 94  2 17 21 13 29.9990000  0  6 31 18 19 27 28 29
  22353106.315    -2160048.374 6  -1591827.847 7
  20130352.417     -169494.837 7   -116915.256 9
  20766907.886    -1084360.036 7   -804380.615 9
  22024942.972    -2316099.994 6  -1724864.129 8
  23254810.433     -500704.162 6   -360683.480 6
  21621301.425     1482729.333 7   1113835.925 9
 94  2 17 21 13 59.9990000  0  6 31 18 19 27 28 29
  22341383.433    -2221655.426 6  -1639833.219 7
  20131108.987     -165519.053 8   -113817.230 9
  20761182.745    -1114447.024 7   -827824.985 9
  22011453.081    -2386989.014 6  -1780102.269 8
  23253734.175     -506358.827 6   -365089.664 6
  21631911.222     1538483.044 7   1157280.369 9
 94  2 17 21 14 29.9990000  0  6 31 18 19 27 28 29
  22329774.394    -2282659.420 6  -1687368.682 7
  20131977.909     -160953.074 8   -110259.312 9
  20755523.542    -1144185.766 7   -850997.996 9
  21998009.769    -2457633.508 6  -1835149.871 8
  23252787.995     -511330.868 6   -368963.937 6
  21642611.737     1594714.010 7   1201096.705 9
 94  2 17 21 14 59.9990000  0  6 31 18 19 27 28 29
  22318274.026    -2343089.278 6  -1734456.793 7
  20132958.987     -155797.308 7   -106241.824 9
  20749932.378    -1173567.550 7   -873892.863 9
  21984612.128    -2528038.435 6  -1890010.795 7
  23251969.097     -515635.078 6   -372317.837 6
  21653401.604     1651415.361 7   1245279.565 8
 94  2 17 21 15 29.9990000  0  7 31  2 18 19 27 28 29
  22306879.644    -2402967.843 6  -1781115.327 7
  24236334.409      -59297.54114
  20134053.792     -150043.708 7   -101758.494 9
  20744405.831    -1202608.883 7   -896522.448 9
  21971259.870    -2598206.357 6  -1944687.046 8
  23251274.058     -519286.406 6   -375162.988 6
  21664282.354     1708592.940 7   1289833.518 8
 94  2 17 21 15 59.9990000  0  7 31  2 18 19 27 28 29
  22295590.104    -2462297.273 6  -1827345.967 7
  24216461.440     -163735.419 5
  20135265.917     -143675.403 7    -96796.171 9
  20738941.769    -1231321.757 7   -918896.095 9
  21957956.831    -2668112.934 6  -1999159.647 8
  23250702.831     -522286.886 6   -377500.982 6
  21675254.854     1766253.507 7   1334763.823 8
 94  2 17 21 16 29.9990000  0  7 31  2 18 19 27 28 29
  22284403.808    -2521082.377 6  -1873152.471 7
  24196636.987     -267908.449 4    -78462.47415
  20136594.378     -136693.077 7    -91355.394 9
  20733534.886    -1259737.339 7   -941038.086 9
  21944702.206    -2737766.721 6  -2053435.275 8
  23250252.479     -524650.845 5   -379342.996 6
  21686317.237     1824387.403 7   1380062.958 8
 94  2 17 21 16 59.9990000  0  7 31  2 18 19 27 28 29
  22273326.620    -2579290.383 6  -1918509.302 7
  24176869.409     -371792.460 5   -159410.940 4
  20138042.089     -129084.104 7    -85426.323 9
  20728183.206    -1287859.677 7   -962951.585 9
  21931496.276    -2807163.997 6  -2107511.040 8
  23249928.190     -526357.062 6   -380672.478 6
  21697474.776     1883020.035 7   1425750.716 8
 94  2 17 21 17 29.9990000  0  7 31  2 18 19 27 28 29
  22262359.456    -2636927.449 6  -1963421.255 7
  24157153.175     -475405.954 5   -240148.640 5
  20139605.940     -120865.834 7    -79022.475 9
  20722880.909    -1315723.812 7   -984663.883 9
  21918334.995    -2876324.915 6  -2161402.620 8
  23249727.565     -527412.435 6   -381494.827 6
  21708723.604     1942135.341 6   1471814.576 8
 94  2 17 21 17 59.9990000  0  7 31  2 18 19 27 28 29
  22251499.589    -2693997.342 6  -2007891.257 7
  24137482.894     -578770.131 5   -320692.030 5
  20141280.011     -112069.825 7    -72168.443 9
  20717622.808    -1343354.371 7  -1006194.176 9
  21905214.315    -2945274.891 6  -2215129.835 8
  23249646.394     -527841.082 6   -381828.818 6
  21720057.526     2001697.231 6   1518226.423 8
 94  2 17 21 18 29.9990000  0  7 31  2 18 19 27 28 29
  22240746.409    -2750507.986 6  -2051925.488 7
  24117860.222     -681886.512 5   -401042.331 5
  20143058.636     -102722.914 7    -64885.134 9
  20712411.940    -1370738.621 7  -1027532.537 9
  21892131.011    -3014027.976 6  -2268703.630 8
  23249682.659     -527649.327 6   -381679.361 6
  21731475.956     2061696.506 7   1564979.091 8
 94  2 17 21 18 59.9990000  0  7 31  2 18 19 27 28 29
  22230095.636    -2806470.851 6  -2095532.895 7
  24098283.636     -784761.577 5   -481204.626 5
  20144938.597      -92842.665 7    -57186.240 9
  20707251.058    -1397859.901 7  -1048665.995 9
  21879086.261    -3082580.027 6  -2322120.772 8
  23249835.800     -526843.460 6   -381051.379 6
  21742976.604     2122133.557 6   1612072.877 8
 94  2 17 21 19 29.9990000  0  7 31  2 18 19 27 28 29
  22219549.683    -2861892.649 6  -2138718.697 7
  24078750.808     -887408.543 5   -561189.173 5
  20146919.776      -82433.361 7    -49075.095 9
  20702142.065    -1424707.104 7  -1069585.893 9
  21866080.550    -3150925.055 6  -2375376.604 8
  23250103.136     -525436.572 6   -379955.056 6
  21754558.417     2183000.943 6   1659501.989 8
 94  2 17 21 19 59.9990000  0  7 31  2 18 19 27 28 29
  22209108.011    -2916763.543 6  -2181475.227 7
  24059262.019     -989820.609 5   -640990.650 5
  20149001.136      -71494.240 7    -40551.107 9
  20697088.698    -1451263.474 7  -1090279.158 9
  21853117.526    -3219044.678 6  -2428456.797 8
  23250487.167     -523421.997 6   -378385.210 6
  21766223.440     2244298.778 6   1707266.514 8
 94  2 17 21 20 29.9990000  0  7 31  2 18 19 27 28 29
  22198767.940    -2971098.061 6  -2223813.803 7
  24039818.104    -1091996.192 5   -720607.889 5
  20151182.159      -60032.370 7    -31619.783 9
  20692088.675    -1477537.031 7  -1110752.056 9
  21840196.175    -3286947.177 6  -2481367.803 8
  23250986.339     -520799.870 6   -376341.959 6
  21777969.495     2306022.504 6   1755362.900 8
 94  2 17 21 20 59.9990000  0  7 31  2 18 19 27 28 29
  22188531.323    -3024893.124 6  -2265732.030 7
  24020420.753    -1193930.363 5   -800037.016 5
  20153466.808      -48026.643 7    -22264.668 9
  20687139.925    -1503543.890 7  -1131017.141 9
  21827314.042    -3354645.801 6  -2534119.953 8
  23251602.698     -517565.493 6   -373821.630 6
  21789794.144     2368164.093 6   1803784.885 8
 94  2 17 21 21 29.9990000  0  7 31  2 18 19 27 28 29
  22178399.292    -3078138.775 6  -2307222.143 7
  24001070.276    -1295621.172 5   -879276.499 5
  20155856.972      -35466.208 7    -12477.313 9
  20682238.651    -1529300.002 7  -1151086.835 9
  21814466.925    -3422156.078 6  -2586725.330 8
  23252334.769     -513712.371 6   -370819.151 6
  21801696.300     2430710.084 6   1852521.987 8
 94  2 17 21 21 59.9990000  0  7 31  2 18 19 27 28 29
  22168368.058    -3130852.921 6  -2348298.087 7
  23981768.401    -1397050.433 5   -958312.165 5
  20158351.073      -22360.274 7     -2264.897 9
  20677383.190    -1554815.210 7  -1170968.805 9
  21801652.526    -3489496.817 6  -2639198.605 8
  23253185.581     -509239.561 6   -367333.779 6
  21813673.925     2493652.084 6   1901567.669 8
 94  2 17 21 22 29.9990000  0  7 31  2 18 19 27 28 29
  22158437.956    -3183035.363 6  -2388959.720 7
  23962518.167    -1498214.309 5  -1037141.081 5
  20160949.011       -8708.192 7      8373.095 9
  20672573.245    -1580091.842 7  -1190664.871 9
  21788866.034    -3556689.619 6  -2691556.604 8
  23254153.823     -504149.553 6   -363367.483 6
  21825728.011     2556995.351 6   1950926.022 8
 94  2 17 21 22 59.9990000  0  7 31  2 18 19 27 28 29
  22148607.706    -3234696.229 6  -2429214.915 7
  23943310.503    -1599147.432 5  -1115790.145 5
  20163648.323        5478.006 7     19427.276 9
  20667805.839    -1605144.520 7  -1210186.427 9
  21776106.597    -3623740.925 6  -2743804.350 8
  23255235.815     -498463.948 6   -358937.087 6
  21837857.159     2620733.135 6   2000591.781 8
 94  2 17 21 23 29.9990000  0  7 31  2 18 19 27 28 29
  22138876.542    -3285830.762 6  -2469059.969 7
  23924147.526    -1699848.735 5  -1194258.597 5
  20166448.995       20194.956 7     30895.033 9
  20663084.261    -1629956.567 7  -1229520.485 9
  21763378.620    -3690626.697 6  -2795923.104 8
  23256432.300     -492178.755 6   -354039.482 6
  21850063.065     2684875.653 6   2050572.921 8
 94  2 17 21 23 59.9990000  0  7 31  2 18 19 27 28 29
  22129249.495    -3336423.193 6  -2508482.612 7
  23905029.229    -1800315.234 5  -1272544.073 5
  20169354.300       35461.293 7     42790.878 9
  20658412.659    -1654506.505 7  -1248650.299 9
  21750687.292    -3757319.479 6  -2847891.472 8
  23257742.847     -485289.157 6   -348670.903 6
  21862349.347     2749440.149 7   2100882.873 8
 94  2 17 21 24 29.9990000  0  7 31  2 18 19 27 28 29
  22119729.144    -3386451.391 6  -2547465.574 7
  23885950.065    -1900578.933 5  -1350671.526 5
  20172365.104       51283.131 7     55119.586 9
  20653790.651    -1678795.328 7  -1267576.643 9
  21738033.503    -3823817.325 6  -2899707.944 8
  23259167.104     -477808.982 6   -342842.149 6
  21874714.347     2814418.207 7   2151515.081 8
 94  2 17 21 24 59.9990000  0  7 31  2 18 19 27 28 29
  22110317.683    -3435908.356 6  -2586003.413 7
  23866909.144    -2000639.360 5  -1428640.603 5
  20175483.503       67669.657 7     67888.307 9
  20649219.964    -1702814.273 7  -1286292.691 9
  21725420.011    -3890099.815 6  -2951356.597 8
  23260702.987     -469740.502 6   -336554.972 6
  21887156.261     2879800.642 7   2202462.386 8
 94  2 17 21 25 29.9990000  0  7 31  2 18 19 27 28 29
  22101018.448    -3484773.710 6  -2624080.235 7
  23847912.401    -2100466.927 5  -1506428.217 5
  20178708.433       84617.606 7     81094.507 9
  20644703.440    -1726548.978 7  -1304787.259 9
  21712847.644    -3956166.913 6  -3002837.418 8
  23262351.644     -461070.500 6   -329799.086 6
  21899673.479     2945582.465 6   2253720.898 8
 94  2 17 21 25 59.9990000  0  7 31  2 18 19 27 28 29
  22091833.519    -3533041.793 6  -2661691.651 7
  23828961.456    -2200055.300 5  -1584029.456 5
  20182040.073      102125.677 7     94737.164 9
  20640238.261    -1750012.793 7  -1323070.736 9
  21700314.784    -4022028.337 6  -3054157.969 8
  23264115.026     -451806.490 6   -322580.339 6
  21912268.433     3011766.426 7   2305292.773 8
 94  2 17 21 26 29.9990000  0  7 31  2 18 19 27 28 29
  22082758.870    -3580731.104 6  -2698852.074 8
  23810055.479    -2299405.268 5  -1661444.918 5
  20185474.175      120171.844 7    108799.112 9
  20635821.229    -1773224.986 7  -1341158.149 9
  21687818.847    -4087693.657 6  -3105325.709 8
  23265989.276     -441954.125 6   -314903.146 6
  21924938.034     3078347.254 6   2357173.882 8
 94  2 17 21 26 59.9990000  0  7 31  2 18 19 27 28 29
  22073786.651    -3627878.886 6  -2735590.525 7
  23791196.261    -2398513.554 5  -1738672.047 5
  20189007.011      138737.232 7    123265.644 9
  20631448.159    -1796205.592 7  -1359065.104 9
  21675359.401    -4153168.251 6  -3156344.826 8
  23267976.378     -431513.793 6   -306767.802 6
  21937683.456     3145325.799 6   2409364.904 8
 94  2 17 21 27 29.9990000  0  7 31  2 18 19 27 28 29
  22064918.878    -3674479.648 6  -2771902.716 7
  23772383.933    -2497368.823 5  -1815702.056 5
  20192637.737      157816.474 7    138132.585 9
  20627119.144    -1818954.490 7  -1376791.504 9
  21662936.847    -4218449.733 6  -3207213.469 8
  23270076.784     -420473.733 6   -298165.153 6
  21950508.815     3212724.059 6   2461882.986 8
 94  2 17 21 27 59.9990000  0  7 31  2 18 19 27 28 29
  22056153.128    -3720546.311 6  -2807798.725 7
  23753615.831    -2595994.648 5  -1892553.257 5
  20196366.823      177414.208 7    153403.542 9
  20622830.175    -1841493.774 7  -1394354.567 9
  21650548.534    -4283552.297 6  -3257942.703 8
  23272288.815     -408851.296 6   -289108.715 6
  21963412.331     3280531.451 6   2514719.867 8
 94  2 17 21 28 29.9990000  0  7 31  2 18 19 27 28 29
  22047488.151    -3766078.401 6  -2843278.183 8
  23734892.308    -2694391.485 5  -1969226.034 5
  20200195.472      197533.496 7    169080.908 9
  20618581.487    -1863818.759 7  -1411750.643 9
  21638194.144    -4348474.267 6  -3308531.204 8
  23274613.144     -396635.465 5   -279589.886 6
  21976391.144     3348734.412 6   2567864.988 8
 94  2 17 21 28 59.9990000  0  7 31  2 18 19 27 28 29
  22038929.269    -3811053.325 6  -2878323.481 7
  23716214.214    -2792544.347 5  -2045708.717 5
  20204124.651      218181.096 7    185169.943 9
  20614375.222    -1885923.729 7  -1428975.280 9
  21625873.167    -4413220.554 6  -3358982.810 8
  23277051.261     -383825.801 5   -269608.353 6
  21989441.097     3417313.049 6   2621302.847 7
 94  2 17 21 29 29.9990000  0  7 31  2 18 19 27 28 29
  22030481.190    -3855445.803 6  -2912914.929 8
  23697585.237    -2890441.130 5  -2121991.839 5
  20208156.683      239370.018 7    201680.789 9
  20610212.222    -1907802.101 7  -1446023.342 9
  21613586.878    -4477785.088 6  -3409292.794 8
  23279599.862     -370433.020 5   -259172.454 6
  22002558.870     3486248.193 6   2675018.503 7
 94  2 17 21 29 59.9990000  0  7 31  2 18 19 27 28 29
  22022149.198    -3899233.889 6  -2947035.422 8
  23679007.542    -2988067.061 5  -2198063.935 5
  20212299.401      261139.278 7    218643.846 9
  20606094.042    -1929442.148 7  -1462885.701 9
  21601338.229    -4542153.243 7  -3459449.755 9
  23282262.409     -356437.376 5   -248266.792 6
  22015746.815     3555549.509 6   2729019.490 7
 94  2 17 21 30 29.9990000  0  7 31  2 18 19 27 28 29
  22013934.964    -3942397.760 6  -2980669.520 8
  23660487.776    -3085388.531 5  -2273898.791 5
  20216554.479      283501.373 7    236068.850 9
  20602026.112    -1950818.933 7  -1479542.925 9
  21589131.901    -4606299.301 7  -3509433.656 9
  23285045.104     -341814.037 5   -236872.015 6
  22029009.175     3625242.603 6   2783325.746 8
 94  2 17 21 30 59.9990000  0  7 31  2 18 19 27 28 29
  22005834.878    -3984964.325 6  -3013838.184 8
  23642018.706    -3182441.323 5  -2349524.301 5
  20220914.206      306410.847 7    253920.384 9
  20598003.089    -1971960.527 7  -1496016.873 9
  21576961.073    -4670256.568 7  -3559270.458 9
  23287941.800     -326595.961 6   -225013.793 6
  22042341.620     3695305.454 6   2837920.145 8
 94  2 17 21 31 29.9990000  0  7 31  2 18 19 27 28 29
  21997846.948    -4026943.760 6  -3046549.347 8
  23623598.308    -3279244.234 5  -2424955.093 6
  20225376.581      329860.320 7    272192.697 9
  20594024.565    -1992868.861 7  -1512309.060 9
  21564824.870    -4734030.866 7  -3608964.689 9
  23290950.073     -310782.682 5   -212691.779 6
  22055748.128     3765754.438 6   2892815.408 7
 94  2 17 21 31 59.9990000  0  7 31  2 18 19 27 28 29
  21989971.714    -4068328.829 6  -3078797.373 7
  23605223.050    -3375802.619 5  -2500195.341 5
  20229941.089      353847.005 7    290883.607 9
  20590091.940    -2013533.422 7  -1528411.295 9
  21552723.589    -4797623.315 7  -3658517.221 9
  23294077.183     -294351.681 5   -199888.407 6
  22069231.995     3836612.999 6   2948029.821 7
 94  2 17 21 32 29.9990000  0  7 31  2 18 19 27 28 29
  21982204.401    -4109139.299 6  -3110597.663 7
  23586893.230    -3472131.203 5  -2575256.515 5
  20234603.362      378346.785 7    309974.337 9
  20586205.987    -2033955.260 7  -1544324.400 9
  21540655.729    -4861041.947 7  -3707934.311 9
  23297318.276     -277322.829 6   -186619.174 6
  22082791.690     3907866.971 6   3003552.346 7
 94  2 17 21 32 59.9990000  0  7 31  2 18 19 27 28 29
  21974552.628    -4149354.778 6  -3141934.333 8
  23568608.565    -3568212.839 5  -2650125.276 6
  20239368.839      403388.466 7    329487.326 9
  20582370.581    -2054110.304 7  -1560029.614 9
  21528626.870    -4924252.631 7  -3757189.371 9
  23300677.808     -259666.220 5   -172860.746 6
  22096429.714     3979533.668 6   3059396.472 7
 94  2 17 21 33 29.9990000  0  7 31  2 18 19 27 28 29
  21967009.925    -4188988.309 6  -3172817.540 8
  23550371.558    -3664051.691 5  -2724804.843 5
  20244239.878      428986.539 7    349433.861 9
  20578584.112    -2074008.959 7  -1575535.048 9
  21516636.573    -4987263.488 7  -3806288.722 9
  23304152.831     -241402.426 5   -158629.186 6
  22110144.394     4051606.985 6   3115557.452 7
 94  2 17 21 33 59.9990000  0  7 31  2 18 19 27 28 29
  21959576.956    -4228048.501 6  -3203253.984 8
  23532182.136    -3759638.425 5  -2799287.964 5
  20249217.245      455142.985 7    369815.498 9
  20574844.737    -2093657.497 7  -1590845.594 9
  21504684.433    -5050072.661 7  -3855230.918 9
  23307741.776     -222543.380 5   -143933.786 6
  22123935.284     4124078.349 6   3172028.589 7
 94  2 17 21 34 29.9990000  0  7 31  2 18 19 27 28 29
  21952253.190    -4266536.600 6  -3233244.648 7
  23514043.409    -3854954.123 5  -2873559.869 6
  20254302.019      481864.074 7    390637.112 9
  20571154.433    -2113051.017 7  -1605957.420 9
  21492771.089    -5112677.249 7  -3904013.698 9
  23311442.886     -203092.426 5   -128777.160 6
  22137799.159     4196935.602 6   3228800.421 7
 94  2 17 21 34 59.9990000  0  7 31  2 18 19 27 28 29
  21945041.190    -4304436.120 6  -3262776.676 7
  23495961.019    -3949981.904 5  -2947607.421 5
  20259494.472      509149.871 7    411898.759 9
  20567514.276    -2132180.444 7  -1620863.455 9
  21480896.589    -5175077.086 7  -3952636.934 9
  23315257.003     -183050.747 5   -113160.232 6
  22151738.589     4270185.261 6   3285878.022 7
 94  2 17 21 35 29.9990000  0  7 31  2 18 19 27 28 29
  21937942.128    -4341740.470 6  -3291844.933 8
  23477930.862    -4044729.543 5  -3021436.695 5
  20264794.034      536999.303 7    433599.601 9
  20563924.714    -2151043.434 7  -1635561.879 9
  21469057.315    -5237292.595 7  -4001116.528 9
  23319179.003     -162442.610 5    -97101.914 6
  22165751.042     4343822.225 6   3343257.422 7
 94  2 17 21 35 59.9990000  0  7 31  2 18 19 27 28 29
  21930956.878    -4378447.546 6  -3320447.780 8
  23459953.659    -4139199.242 5  -3095049.372 6
  20270197.847      565396.056 7    455726.929 9
  20560385.862    -2169640.248 7  -1650052.901 9
  21457253.870    -5299322.088 7  -4049451.180 9
  23323208.167     -141263.807 5    -80598.917 6
  22179833.151     4417821.172 6   3400918.886 7
 94  2 17 21 36 29.9990000  0  7 31  2 18 19 27 28 29
  21924088.417    -4414541.870 6  -3348573.171 8
  23442028.019    -4233393.895 5  -3168447.739 5
  20275702.644      594324.382 7    478268.466 9
  20556899.698    -2187960.811 7  -1664328.662 9
  21445486.909    -5361156.310 7  -4097633.668 9
  23327349.034     -119506.501 5    -63645.164 6
  22193983.800     4492185.609 6   3458865.134 7
 94  2 17 21 36 59.9990000  0  7 31  2 18 19 27 28 29
  21917339.175    -4450012.900 6  -3376212.889 8
  23424155.612    -4327318.752 5  -3241635.868 5
  20281309.292      623786.436 7    501225.897 9
  20553464.440    -2206012.624 7  -1678395.010 9
  21433759.269    -5422784.285 7  -4145655.443 9
  23331599.401      -97171.217 5    -46241.063 6
  22208207.370     4566929.814 6   3517107.323 7
 94  2 17 21 37 29.9990000  0  7 31  2 18 19 27 28 29
  21910708.292    -4484857.784 6  -3403364.702 8
  23406334.667    -4420967.365 5  -3314608.739 5
  20287018.198      653788.239 7    524603.904 9
  20550079.050    -2223803.755 7  -1692258.223 9
  21422072.440    -5484198.890 7  -4193510.954 9
  23335963.339      -74240.361 5    -28372.856 6
  22222502.261     4642049.368 6   3575641.986 7
 94  2 17 21 37 59.9990000  0  7 31  2 18 19 27 28 29
  21904197.440    -4519075.415 6  -3430027.746 8
  23388571.237    -4514317.736 5  -3387349.212 6
  20292828.894      684322.291 7    548396.654 9
  20546743.354    -2241332.148 7  -1705916.710 9
  21410430.308    -5545379.297 7  -4241183.968 9
  23340445.839      -50683.207 5    -10016.660 5
  22236869.800     4717551.449 6   3634474.724 7
 94  2 17 21 38 29.9990000  0  7 31  2 18 19 27 28 29
  21897804.042    -4552664.163 6  -3456200.751 8
  23370862.519    -4607373.096 5  -3459859.819 6
  20298740.565      715388.132 7    572603.781 9
  20543457.815    -2258597.120 7  -1719369.934 9
  21398830.409    -5606337.861 7  -4288684.119 9
  23345048.823      -26498.944 5      8828.215 6
  22251312.729     4793450.583 6   3693616.859 7
 94  2 17 21 38 59.9990000  0  7 31  2 18 19 27 28 29
  21891532.808    -4585621.186 6  -3481881.519 8
  23353211.159    -4700132.295 5  -3532139.649 6
  20304758.401      747011.536 7    597245.371 9
  20540221.659    -2275602.594 7  -1732620.956 9
  21387272.073    -5667076.507 7  -4336012.902 9
  23349769.159       -1691.216 5     28158.902 6
  22265828.464     4869732.943 6   3753057.596 7
 94  2 17 21 39 29.9990000  0  7 31  2 18 19 27 28 29
  21885381.683    -4617948.996 6  -3507071.987 8
  23335613.651    -4792609.706 5  -3604199.892 6
  20310880.792      779185.872 7    622316.260 9
  20537035.808    -2292346.056 7  -1745667.809 9
  21375754.159    -5727604.495 7  -4383177.529 9
  23354608.565       23739.376 5     47974.936 6
  22280415.315     4946385.698 6   3812786.961 7
 94  2 17 21 39 59.9990000  0  7 31  2 18 19 27 28 29
  21879349.519    -4649648.124 6  -3531772.579 8
  23318067.292    -4884812.402 5  -3676046.101 6
  20317108.995      811914.498 7    647819.060 9
  20533901.206    -2308817.765 7  -1758502.899 9
  21364277.737    -5787912.671 7  -4430170.874 9
  23359565.948       49791.053 5     68274.923 6
  22295074.464     5023418.007 6   3872812.088 7
 94  2 17 21 40 29.9990000  0  7 31  2 18 19 27 28 29
  21873439.081    -4680704.293 6  -3555972.171 8
  23300574.175    -4976743.387 5  -3747680.564 6
  20323445.823      845215.213 7    673767.645 9
  20530817.862    -2325021.241 7  -1771128.975 9
  21352843.534    -5848000.121 7  -4476992.229 9
  23364639.089       76449.314 5     89047.563 6
  22309806.698     5100839.507 6   3933140.489 7
 94  2 17 21 40 59.9990000  0  7 31  2 18 19 27 28 29
  21867652.737    -4711114.175 6  -3579668.164 8
  23283134.417    -5068384.879 5  -3819089.458 6
  20329895.526      879107.495 7    700177.196 9
  20527785.050    -2340960.296 7  -1783549.009 9
  21341453.722    -5907853.405 7  -4523631.116 9
  23369827.073      103714.082 5    110292.816 6
  22324616.034     5178660.704 6   3993780.329 7
 94  2 17 21 41 29.9990000  0  7 31  2 18 19 27 28 29
  21861985.776    -4740891.111 6  -3602870.952 8
  23265753.620    -5159724.481 5  -3890263.093 6
  20336453.987      913573.658 7    727033.922 9
  20524801.972    -2356634.720 7  -1795762.842 9
  21330107.511    -5967478.333 7  -4570092.063 9
  23375131.237      131588.309 5    132012.972 6
  22339503.394     5256898.300 6   4054744.645 6
 94  2 17 21 41 59.9990000  0  7 31  2 18 19 27 28 29
  21856440.276    -4770035.980 6  -3625581.222 8
  23248433.761    -5250742.257 5  -3961185.983 6
  20343122.081      948613.788 7    754337.898 9
  20521869.612    -2372045.582 7  -1807771.302 9
  21318804.315    -6026876.779 7  -4616376.539 9
  23380549.151      160066.880 5    154204.050 5
  22354471.909     5335556.244 6   4116036.486 6
 94  2 17 21 42 29.9990000  0  7 31  2 18 19 27 28 29
  21851015.222    -4798545.283 6  -3647796.237 8
  23231175.784    -5341432.110 6  -4031853.345 6
  20349897.714      984220.936 7    782083.707 9
  20518986.433    -2387197.013 7  -1819577.607 9
  21307541.128    -6086064.101 7  -4662496.501 9
  23386083.198      189139.231 5    176857.807 6
  22369519.136     5414628.850 6   4177651.459 6
 94  2 17 21 42 59.9990000  0  7 31  2 18 19 27 28 29
  21845714.214    -4826400.761 6  -3669501.778 8
  23213984.558    -5431771.458 6  -4102247.586 6
  20356783.495     1020403.493 7    810277.888 9
  20516158.151    -2402059.910 7  -1831159.087 9
  21296321.800    -6145023.220 7  -4708438.640 9
  23391731.761      218824.980 5    199989.526 6
  22384644.347     5494113.288 6   4239587.333 7
 94  2 17 21 43 29.9990000  0  7 31  2 18 19 27 28 29
  21840540.636    -4853592.400 7  -3690690.038 8
  23196861.440    -5521755.806 5  -4172365.201 6
  20363775.581     1057148.093 7    838910.026 9
  20513387.761    -2416617.848 7  -1842502.933 9
  21285148.190    -6203740.247 7  -4754192.148 9
  23397498.628      249129.320 5    223603.270 6
  22399844.808     5573991.657 6   4301830.164 6
 94  2 17 21 43 59.9990000  0  7 31  2 18 19 27 28 29
  21835487.534    -4880144.506 6  -3711379.952 8
  23179794.870    -5611439.849 6  -4242248.810 6
  20370866.667     1094412.278 7    867947.036 9
  20510665.026    -2430925.574 7  -1853651.805 9
  21274012.964    -6262256.365 7  -4799789.107 9
  23403373.261      280001.308 5    247659.333 5
  22415108.550     5654201.505 6   4364331.276 6
 94  2 17 21 44 29.9990000  0  7 31  2 18 19 27 28 29
  21830556.894    -4906051.271 6  -3731566.999 8
  23162784.870    -5700828.229 6  -4311902.037 6
  20378057.198     1132199.066 7    897391.273 9
  20507991.440    -2444974.266 7  -1864598.831 9
  21262916.472    -6320568.082 7  -4845226.793 9
  23409355.995      311441.620 5    272158.244 6
  22430433.183     5734731.647 6   4427081.982 6
 94  2 17 21 44 59.9990000  0  7 31  2 18 19 27 28 29
  21825749.745    -4931317.076 6  -3751254.600 8
  23145828.065    -5789934.091 5  -4381335.126 6
  20385347.120     1170507.771 7    927242.196 9
  20505367.073    -2458766.912 7  -1875346.350 9
  21251859.667    -6378672.126 7  -4890502.656 9
  23415449.058      343458.284 5    297106.270 6
  22445817.604     5815578.791 6   4490079.696 6
 94  2 17 21 45 29.9990000  0  7 31  2 18 19 27 28 29
  21821062.050    -4955949.839 6  -3770448.921 8
  23128922.987    -5878771.719 6  -4450559.197 6
  20392734.690     1209328.461 7    957492.067 9
  20502789.886    -2472309.175 7  -1885898.769 9
  21240839.862    -6436581.958 7  -4935627.187 9
  23421651.472      376054.422 5    322505.821 6
  22461266.175     5896763.025 6   4553340.067 6
 94  2 17 21 45 59.9990000  0  7 31  2 18 19 27 28 29
  21816494.058    -4979952.931 6  -3789152.597 8
  23112066.714    -5967352.214 5  -4519582.901 6
  20400219.534     1248660.583 7    988140.458 9
  20500258.862    -2485611.132 7  -1896263.924 9
  21229853.073    -6494317.377 7  -4980615.814 9
  23427965.854      409233.279 5    348359.469 6
  22476781.144     5978293.402 6   4616870.163 6
 94  2 17 21 46 29.9990000  0  7 31  2 18 19 27 28 29
  21812042.097    -5003348.861 6  -3807383.150 8
  23095258.433    -6055678.890 6  -4588408.833 6
  20407801.753     1288506.373 7   1019189.105 9
  20497774.175    -2498667.451 7  -1906437.671 9
  21218898.011    -6551886.559 7  -5025474.903 9
  23434391.354      443001.403 5    374672.266 6
  22492360.495     6060164.602 6   4680665.825 6
 94  2 17 21 46 59.9990000  0  7 31  2 18 19 27 28 29
  21807701.690    -5026160.954 6  -3825158.771 8
  23078496.292    -6143767.501 6  -4657049.262 6
  20415477.769     1328844.407 7   1050621.317 9
  20495329.808    -2511513.766 7  -1916447.786 9
  21207973.237    -6609298.279 7  -5070211.298 9
  23440924.456      477332.806 5    401423.981 6
  22508002.058     6142359.108 6   4744713.417 6
 94  2 17 21 47 29.9990000  0  7 31  2 18 19 27 28 29
  21803470.058    -5048399.046 6  -3842487.111 8
  23061779.581    -6231613.241 6  -4725500.452 6
  20423247.909     1369675.606 7   1082437.822 9
  20492923.511    -2524157.027 7  -1926299.677 9
  21197078.979    -6666546.304 7  -5114820.133 9
  23447559.948      512201.109 5    428594.063 6
  22523700.253     6224849.943 6   4808991.915 6
 94  2 17 21 47 59.9990000  0  7 31  2 18 19 27 28 29
  21799345.979    -5070070.417 6  -3859373.856 8
  23045108.683    -6319219.628 6  -4793765.114 6
  20431113.589     1411009.891 7   1114646.335 9
  20490553.144    -2536614.878 7  -1936007.087 9
  21186218.487    -6723618.820 7  -5159292.207 9
  23454291.823      547581.760 5    456163.368 6
  22539447.753     6307607.703 6   4873478.392 6
 94  2 17 21 48 29.9990000  0  7 31  2 18 19 27 28 29
  21795330.511    -5091167.630 6  -3875813.212 8
  23028485.089    -6406577.074 6  -4861835.806 6
  20439078.526     1452866.045 7   1147261.508 9
  20488221.581    -2548867.995 7  -1945554.965 9
  21175397.026    -6780485.684 7  -5203604.031 9
  23461120.925      583464.748 5    484124.117 6
  22555250.292     6390650.255 6   4938186.792 6
 94  2 17 21 48 59.9990000  0  7 31  2 18 19 27 28 29
  21791429.167    -5111669.783 6  -3891788.885 8
  23011908.222    -6493687.955 6  -4929714.384 6
  20447141.823     1495239.910 7   1180280.086 9
  20485931.175    -2560904.357 7  -1954933.939 9
  21164615.386    -6837143.991 7  -5247753.341 9
  23468041.940      619836.664 5    512465.825 6
  22571109.487     6473990.708 6   5003127.330 6
 94  2 17 21 49 29.9990000  0  7 31  2 18 19 27 28 29
  21787643.245    -5131569.567 7  -3907295.185 8
  22995377.769    -6580555.541 6  -4997403.380 6
  20455304.495     1538136.019 7   1213705.604 9
  20483685.503    -2572704.666 7  -1964128.970 9
  21153870.269    -6893609.730 7  -5291752.595 9
  23475060.026      656715.527 5    541202.568 5
  22587029.769     6557650.813 6   5068316.926 6
 94  2 17 21 49 59.9990000  0  7 31  2 18 19 27 28 29
  21783971.776    -5150861.461 7  -3922327.802 8
  22978895.909    -6667169.524 6  -5064894.760 6
  20463565.917     1581549.330 7   1247534.136 9
  20481485.948    -2584261.144 7  -1973133.995 9
  21143159.128    -6949898.032 7  -5335613.586 9
  23482176.714      694117.245 5    570346.723 6
  22603016.565     6641660.313 6   5133778.791 6
 94  2 17 21 50 29.9990000  0  7 31  2 18 19 27 28 29
  21780415.831    -5169546.529 7  -3936887.577 8
  22962464.550    -6753517.478 6  -5132178.852 6
  20471921.112     1625456.434 7   1281747.446 9
  20479335.862    -2595562.359 7  -1981940.120 9
  21132478.175    -7006025.943 7  -5379349.596 9
  23489394.581      732045.205 5    599900.926 6
  22619067.081     6726006.908 6   5199503.321 6
 94  2 17 21 50 59.9990000  0  7 31  2 18 19 27 28 29
  21776978.729    -5187608.426 7  -3950961.771 8
  22946084.800    -6839591.924 6  -5199249.816 6
  20480367.714     1669844.718 7   1316335.695 9
  20477231.347    -2606620.189 7  -1990556.603 9
  21121825.964    -7062001.634 7  -5422966.990 9
  23496715.604      770514.606 5    629877.052 5
  22635176.042     6810662.686 6   5265468.767 6
 94  2 17 21 51 29.9990000  0  7 31  2 18 19 27 28 29
  21773659.237    -5205051.208 7  -3964553.530 8
  22929759.870    -6925382.084 6  -5266099.256 6
  20488905.550     1714710.024 7   1351295.653 9
  20475168.706    -2617460.016 7  -1999003.211 9
  21111203.659    -7117824.348 7  -5466465.183 9
  23504137.714      809522.269 5    660272.606 6
  22651341.706     6895610.194 6   5331661.540 6
 94  2 17 21 51 59.9990000  0  8 31  2 16 18 19 27 28 29
  21770456.761    -5221881.058 6  -3977667.702 8
  22913488.050    -7010890.948 6  -5332729.521 6
  24028726.120       -8782.93114
  20497531.065     1760039.249 7   1386617.097 9
  20473142.401    -2628106.911 7  -2007299.495 9
  21100610.917    -7173489.456 7  -5509840.573 9
  23511658.425      849045.357 5    691069.781 5
  22667554.417     6980808.583 6   5398049.800 6
 94  2 17 21 52 29.9990000  0  8 31  2 16 18 19 27 28 29
  21767370.823    -5238094.922 7  -3990301.863 8
  22897263.183    -7096147.639 6  -5399163.281 6
  24018750.229      -61205.514 4
  20506242.487     1805817.527 7   1422288.463 9
  20471148.112    -2638587.286 7  -2015466.010 9
  21090045.456    -7229010.581 7  -5553103.758 9
  23519276.628      889078.889 5    722264.701 5
  22683808.612     7066226.610 6   5464609.215 6
 94  2 17 21 52 59.9990000  0  8 31  2 16 18 19 27 28 29
  21764401.511    -5253699.496 6  -4002461.262 8
  22881084.214    -7181174.342 6  -5465417.815 6
  24008863.370     -113161.957 4    -25597.62314
  20515038.245     1852039.087 7   1458305.228 9
  20469181.370    -2648922.481 7  -2023519.398 9
  21079503.769    -7284406.593 7  -5596269.455 9
  23526991.839      929614.059 5    753850.507 6
  22700108.315     7151880.392 6   5531352.319 6
 94  2 17 21 53 29.9990000  0  8 31  2 16 18 19 27 28 29
  21761540.776    -5268734.582 6  -4014176.907 8
  22864945.698    -7265979.651 6  -5531499.840 6
  23999063.651     -164656.911 4    -65723.507 3
  20523917.081     1898696.973 7   1494661.998 9
  20467241.987    -2659114.580 7  -2031461.290 9
  21068983.300    -7339693.056 7  -5639349.788 9
  23534796.495      970632.796 5    785813.109 5
  22716454.269     7237779.371 6   5598286.495 6
 94  2 17 21 53 59.9990000  0  8 31  2 16 18 19 27 28 29
  21758786.706    -5283205.367 6  -4025452.834 8
  22848849.081    -7350567.807 6  -5597412.652 6
  23989353.847     -215683.972 4   -105484.792 2
  20532877.753     1945785.293 7   1531354.170 9
  20465335.487    -2669133.354 7  -2039268.125 9
  21058483.370    -7394869.396 7  -5682344.309 9
  23542696.589     1012146.158 5    818161.140 6
  22732849.644     7323934.745 6   5665420.454 6
 94  2 17 21 54 29.9990000  0  8 31  2 16 18 19 27 28 29
  21756137.722    -5297126.031 7  -4036300.093 8
  22832791.519    -7434949.511 6  -5663164.579 6
  23979734.058     -266233.600 4   -144874.111 4
  20541917.964     1993290.974 7   1568371.560 9
  20463463.737    -2678969.297 7  -2046932.502 9
  21048003.565    -7449941.548 7  -5725257.642 9
  23550688.933     1054145.682 5    850887.970 6
  22749295.753     7410358.137 6   5732763.255 6
 94  2 17 21 54 59.9990000  0  8 31  2 16 18 19 27 28 29
  21753586.519    -5310533.925 7  -4046747.787 8
  22816774.573    -7519120.345 6  -5728752.189 6
  23970208.370     -316297.701 4   -183885.081 3
  20551035.581     2041205.793 7   1605707.755 9
  20461628.503    -2688613.968 7  -2054447.834 9
  21037545.229    -7504900.198 7  -5768082.543 9
  23558767.284     1096604.800 5    883972.969 5
  22765792.479     7497049.315 6   5800314.727 6
 94  2 17 21 55 29.9990000  0  8 31  2 16 18 19 27 28 29
  21751134.073    -5323424.321 7  -4056792.235 8
  22800799.745    -7603068.909 6  -5794166.598 6
  23960773.972     -365872.971 4   -222515.130 3
  20560234.526     2089545.660 7   1643375.161 9
  20459831.425    -2698057.580 7  -2061806.491 9
  21027114.690    -7559713.199 7  -5810793.949 9
  23566937.745     1139533.653 5    917423.975 5
  22782338.175     7583999.736 6   5868068.195 6
 94  2 17 21 55 59.9990000  0  8 31  2 16 18 19 27 28 29
  21748785.933    -5335761.263 7  -4066405.422 8
  22784867.425    -7686792.846 6  -5859405.957 6
  23951433.519     -414954.812 4   -260760.725 3
  20569514.628     2138313.892 7   1681376.356 9
  20458071.253    -2707307.630 7  -2069014.331 9
  21016715.612    -7614360.926 7  -5853376.573 9
  23575198.112     1182939.056 5    951246.314 6
  22798932.589     7671201.599 6   5936017.604 6
 94  2 17 21 56 29.9990000  0  8 31  2 16 18 19 27 28 29
  21746545.854    -5347534.321 7  -4075579.225 8
  22768978.878    -7770285.468 6  -5924465.076 6
  23942188.026     -463541.597 4   -298620.554 3
  20578881.808     2187538.921 7   1719733.491 9
  20456344.026    -2716385.396 7  -2076087.922 9
  21006350.245    -7668831.958 7  -5895821.508 9
  23583547.722     1226819.651 5    985438.941 6
  22815571.948     7758642.833 5   6004153.524 5
 94  2 17 21 56 59.9990000  0  8 31  2 16 18 19 27 28 29
  21744417.620    -5358718.597 7  -4084294.230 9
  22753136.979    -7853537.068 6  -5989336.375 6
  23933033.753     -511650.560 4   -336108.070 3
  20588339.222     2237236.900 7   1758459.166 9
  20454647.386    -2725300.301 7  -2083034.607 9
  20996019.558    -7723120.341 7  -5938124.116 9
  23591988.979     1271179.142 5   1020004.747 5
  22832255.097     7846313.330 5   6072468.090 6
 94  2 17 21 57 29.9990000  0  8 31  2 16 18 19 27 28 29
  21742412.026    -5369257.318 7  -4092506.209 9
  22737342.675    -7936533.613 6  -6054008.944 6
  23923972.894     -559265.703 4   -373210.756 3
  20597890.417     2287428.117 7   1797569.181 9
  20452983.331    -2734044.779 7  -2089848.495 9
  20985725.315    -7777215.297 7  -5980276.006 9
  23600525.472     1316038.602 5   1054960.138 5
  22848984.433     7934221.892 5   6140968.161 6
 94  2 17 21 57 59.9990000  0  8 31  2 16 18 19 27 28 29
  21740531.714    -5379138.380 7  -4100205.728 8
  22721598.847    -8019268.270 6  -6118477.430 6
  23915008.878     -606367.579 4   -409913.542 4
  20607534.722     2338109.801 7   1837061.379 9
  20451355.987    -2742597.882 7  -2096513.260 9
  20975466.753    -7831124.708 7  -6022283.319 9
  23609156.534     1361393.911 5   1090301.890 5
  22865758.737     8022372.865 5   6209657.133 6
 94  2 17 21 58 29.9990000  0  8 31  2 16 18 19 27 28 29
  21738774.183    -5388375.807 7  -4107403.717 9
  22705907.362    -8101729.866 6  -6182733.159 6
  23906142.081     -652963.105 4   -446221.754 3
  20617272.339     2389281.855 7   1876935.679 9
  20449768.542    -2750939.829 7  -2103013.489 9
  20965241.167    -7884861.251 7  -6064155.930 9
  23617879.433     1407236.385 5   1126023.265 5
  22882580.722     8110774.516 5   6278541.437 6
 94  2 17 21 58 59.9990000  0  8 31  2 16 18 19 27 28 29
  21737139.058    -5396964.948 7  -4114096.548 9
  22690268.964    -8183910.796 6  -6246770.179 6
  23897372.550     -699048.008 3   -482132.066 4
  20627100.073     2440926.403 7   1917178.163 9
  20448225.784    -2759047.331 7  -2109331.026 9
  20955048.823    -7938423.099 7  -6105892.423 9
  23626697.659     1453568.554 5   1162126.210 5
  22899455.237     8199451.118 5   6347639.977 6
 94  2 17 21 59 29.9990000  0  8 31  2 16 18 19 27 28 29
  21735622.964    -5404935.598 7  -4120307.433 2
  22674682.722    -8265816.150 6  -6310592.468 6
  23888705.831     -744593.434 4   -517622.026 4
  20637015.644     2493035.656 7   1957782.748 9
  20446730.659    -2766904.047 7  -2115453.140 9
  20944888.886    -7991813.339 7  -6147495.191 9
  23635605.737     1500387.027 5   1198608.104 5
  22916382.683     8288404.482 5   6416954.178 5
 94  2 17 21 59 59.9990000  0  8 31  2 16 18 19 27 28 29
  21734219.737    -5412309.026 7  -4126052.959 8
  22659151.526    -8347433.334 6  -6374190.218 6
  23880143.815     -789588.943 4   -552683.470 4
  20647023.222     2545622.647 7   1998759.603 9
  20445287.151    -2774489.400 7  -2121363.809 9
  20934764.870    -8045015.114 7  -6188951.104 9
  23644608.979     1547698.120 5   1235473.839 5
  22933365.011     8377646.212 5   6486493.086 6
 94  2 17 22  0 29.9990000  0  8 31  2 16 18 19 27 28 29
  21732927.190    -5419099.178 7  -4131343.995 8
  22643671.831    -8428779.162 6  -6437576.530 7
  23871684.409     -834049.140 4   -587327.814 3
  20657120.519     2598684.329 7   2040106.336 9
  20443889.253    -2781836.512 7  -2127088.844 9
  20924674.792    -8098038.457 7  -6230267.978 9
  23653703.409     1595490.431 5   1272714.556 5
  22950400.964     8467168.797 5   6556250.843 6
 94  2 17 22  0 59.9990000  0  8 31  2 16 18 19 27 28 29
  21731746.776    -5425300.334 6  -4136176.064 8
  22628242.706    -8509859.952 6  -6500756.321 7
  23863327.269     -877958.643 4   -621543.022 2
  20667309.284     2652227.782 7   2081828.482 9
  20442536.370    -2788944.430 7  -2132627.489 9
  20914620.261    -8150875.011 7  -6271439.300 9
  23662890.815     1643770.406 5   1310335.241 5
  22967491.019     8556976.847 5   6626231.029 6
 94  2 17 22  1 29.9990000  0  8 31  2 16 18 19 27 28 29
  21730676.112    -5430929.411 7  -4140562.360 8
  22612862.464    -8590682.654 6  -6563735.010 7
  23855075.089     -921324.362 4   -655334.495 4
  20677588.862     2706245.538 7   2123920.209 9
  20441226.776    -2795826.607 7  -2137990.233 9
  20904599.386    -8203534.393 7  -6312472.569 9
  23672171.167     1692539.486 5   1348337.063 6
  22984633.019     8647058.493 5   6696424.430 6
 94  2 17 22  1 59.9990000  0  8 31  2 16 18 19 27 28 29
  21729718.479    -5435961.402 7  -4144483.392 8
  22597532.573    -8671241.473 6  -6626508.078 7
  23846920.909     -964174.787 4   -688724.450 4
  20687957.026     2760731.951 7   2166377.125 9
  20439955.659    -2802506.262 7  -2143195.164 9
  20894611.511    -8256020.553 7  -6353370.857 9
  23681545.198     1741800.696 5   1386722.353 5
  23001827.104     8737415.672 5   6766832.507 6
 94  2 17 22  2 29.9990000  0  8 31  2 16 18 19 27 28 29
  21728878.112    -5440380.593 7  -4147926.913 9
  22582253.190    -8751535.805 6  -6689075.062 7
  23838863.526    -1006518.331 4   -721719.435 4
  20698412.519     2815674.175 7   2209189.221 9
  20438720.354    -2808999.082 7  -2148254.502 9
  20884654.683    -8308345.265 7  -6394143.344 9
  23691013.722     1791556.624 5   1425493.155 5
  23019073.784     8828045.282 5   6837452.867 5
 94  2 17 22  2 59.9990000  0  8 31  2 16 18 19 27 28 29
  21728150.495    -5444202.168 7  -4150904.768 9
  22567022.667    -8831571.604 6  -6751440.585 7
  23830901.604    -1048356.738 4   -754320.823 4
  20708951.245     2871056.045 7   2252343.893 9
  20437520.886    -2815300.779 7  -2153164.908 9
  20874727.112    -8360515.415 7  -6434795.392 9
  23700577.792     1841811.286 5   1464652.579 5
  23036366.565     8918919.845 5   6908264.117 6
 94  2 17 22  3 29.9990000  0  8 31  2 16 18 19 27 28 29
  21727537.073    -5447427.001 7  -4153417.629 9
  22551839.870    -8911359.760 6  -6813613.141 7
  23823032.815    -1089709.211 4   -786543.552 3
  20719569.440     2926853.910 7   2295822.723 9
  20436353.448    -2821435.278 7  -2157945.041 9
  20864828.964    -8412529.760 7  -6475326.031 9
  23710231.620     1892545.223 5   1504185.454 5
  23053700.237     9010006.510 5   6979240.624 6
 94  2 17 22  3 59.9990000  0  8 31  2 16 18 19 27 28 29
  21727039.706    -5450038.711 7  -4155452.729 9
  22536704.495    -8990894.791 6  -6875588.458 7
  23815256.105    -1130578.092 5   -818389.424 3
  20730269.315     2983083.982 7   2339638.335 9
  20435218.104    -2827401.688 7  -2162594.191 9
  20854962.636    -8464377.500 7  -6515726.843 9
  23719973.229     1943738.517 5   1544076.282 5
  23071070.183     9101287.862 5   7050368.831 6
 94  2 17 22  4 29.9990000  0  8 31  2 16 18 19 27 28 29
  21726652.776    -5452072.797 7  -4157037.730 9
  22521613.737    -9070197.125 6  -6937382.448 7
  23807571.909    -1170958.514 5   -849854.684 4
  20741050.284     3039736.158 7   2383782.855 9
  20434115.409    -2833197.203 7  -2167110.175 9
  20845124.886    -8516074.152 7  -6556009.928 9
  23729800.808     1995378.046 5   1584314.814 5
  23088471.472     9192732.183 5   7121624.020 6
 94  2 17 22  4 59.9990000  0  8 31  2 16 18 19 27 28 29
  21726373.292    -5453542.633 7  -4158183.069 9
  22506566.354    -9149273.834 6  -6999000.629 7
  23799981.073    -1210847.853 5   -880937.299 4
  20751910.511     3096807.749 7   2428254.190 9
  20433045.628    -2838818.539 7  -2171490.435 9
  20835315.862    -8567621.750 7  -6596176.868 9
  23739709.128     2047448.240 5   1624888.930 5
  23105901.550     9284324.426 5   7192994.485 5
 94  2 17 22  5 29.9990000  0  8 31  2 16 18 19 27 28 29
  21726202.776    -5454437.966 7  -4158880.742 9
  22491563.878    -9228112.664 6  -7060433.441 7
  23792482.933    -1250252.343 5   -911642.105 3
  20762850.362     3154297.010 7   2473050.990 9
  20432009.175    -2844265.439 7  -2175734.761 9
  20825535.534    -8619017.433 7  -6636225.431 9
  23749696.605     2099934.873 5   1665787.541 5
  23123361.722     9376080.098 5   7264492.293 6
 94  2 17 22  5 59.9990000  0  8 31  2 16 18 19 27 28 29
  21726138.089    -5454774.700 7  -4159143.143 8
  22476607.237    -9306708.347 6  -7121676.785 7
  23785077.315    -1289165.542 5   -941964.084 5
  20773869.456     3212202.316 7   2518171.973 9
  20431005.808    -2849538.505 7  -2179843.628 9
  20815778.237    -8670292.783 7  -6676180.221 9
  23759765.894     2152844.724 5   1707015.958 5
  23140854.808     9468009.086 5   7336125.150 5
 94  2 17 22  6 29.9990000  0  8 31  2 16 18 19 27 28 29
  21726180.573    -5454551.276 7  -4158969.053 8
  22461695.245    -9385069.832 6  -7182737.639 7
  23777768.683    -1327575.019 5   -971893.518 2
  20784962.604     3270497.146 7   2563596.490 9
  20430036.729    -2854630.993 7  -2183811.785 9
  20806041.948    -8721455.602 7  -6716047.335 9
  23769916.464     2206190.350 5   1748583.922 5
  23158386.151     9560133.953 5   7407910.644 5
 94  2 17 22  6 59.9990000  0  8 31  2 16 18 19 27 28 29
  21726333.659    -5453747.068 7  -4158342.408 8
  22446830.901    -9463186.446 6  -7243607.679 7
  23770554.198    -1365485.027 5  -1001433.768 4
  20796127.198     3329167.623 7   2609313.717 9
  20429102.542    -2859540.084 7  -2187637.041 9
  20796329.565    -8772494.964 7  -6755818.245 9
  23780149.331     2259960.927 5   1790483.003 5
  23175959.925     9652480.383 5   7479868.770 5
 94  2 17 22  7 29.9990000  0  8 31  2 16 18 19 27 28 29
  21726597.612    -5452361.334 7  -4157262.631 8
  22432011.581    -9541057.224 6  -7304286.160 7
  23763434.706    -1402897.197 5  -1030586.092 5
  20807361.104     3388202.281 7   2655314.716 9
  20428201.565    -2864273.398 7  -2191325.330 9
  20786640.769    -8823410.242 7  -6795492.463 9
  23790461.245     2314152.048 5   1832709.793 5
  23193576.534     9745058.454 5   7552007.394 5
 94  2 17 22  7 59.9990000  0  8 31  2 16 18 19 27 28 29
  21726971.651    -5450395.539 7  -4155730.854 9
  22417238.237    -9618693.634 6  -7364782.014 7
  23756411.206    -1439805.733 5  -1059345.953 5
  20818666.245     3447609.514 7   2701606.037 9
  20427335.331    -2868825.903 7  -2194872.723 9
  20776976.315    -8874196.240 7  -6835065.947 9
  23800853.612     2368766.881 5   1875266.726 5
  23211237.417     9837866.803 5   7624325.476 5
 94  2 17 22  8 29.9990000  0  8 31  2 16 18 19 27 28 29
  21727456.378    -5447848.638 7  -4153746.265 9
  22402506.722    -9696108.835 6  -7425105.499 7
  23749482.120    -1476218.736 5  -1087719.681 4
  20830042.323     3507393.355 7   2748190.819 9
  20426506.214    -2873183.175 7  -2198267.986 9
  20767342.479    -8924822.611 7  -6874515.044 9
  23811324.854     2423798.972 5   1918148.838 5
  23228939.886     9930892.994 5   7696813.288 5
 94  2 17 22  8 59.9990000  0  8 31  2 16 18 19 27 28 29
  21728047.894    -5444738.723 7  -4151322.959 9
  22387818.565    -9773293.224 6  -7485249.128 7
  23742644.440    -1512150.957 5  -1115718.791 3
  20841493.886     3567571.078 7   2795082.519 9
  20425712.964    -2877351.968 7  -2201516.386 9
  20757739.745    -8975285.557 7  -6913836.789 9
  23821875.823     2479240.783 5   1961350.205 5
  23246678.198    10024106.325 5   7769446.936 6
 94  2 17 22  9 29.9990000  0  8 31  2 16 18 19 27 28 29
  21728744.862    -5441079.105 7  -4148471.312 9
  22373173.464    -9850253.099 6  -7545217.814 7
  23735896.753    -1547608.649 5  -1143348.132 5
  20853023.003     3628157.345 7   2842292.567 9
  20424955.386    -2881332.981 7  -2204618.459 9
  20748166.425    -9025593.096 7  -6953037.439 9
  23832505.284     2535100.654 5   2004877.341 5
  23264445.956    10117480.895 5   7842206.204 6
 94  2 17 22  9 59.9990000  0  8 31  2 16 18 19 27 28 29
  21729544.042    -5436879.814 7  -4145199.141 9
  22358567.729    -9927006.979 6  -7605025.988 7
  23729236.526    -1582606.761 5  -1170619.333 5
  20864629.151     3689147.612 7   2889817.419 9
  20424233.183    -2885128.108 7  -2207575.698 9
  20738621.894    -9075749.181 7  -6992120.074 9
  23843214.456     2591372.342 5   2048725.337 5
  23282240.519    10210988.122 5   7915068.848 5
 94  2 17 22 10 29.9990000  0  8 31  2 16 18 19 27 28 29
  21730447.979    -5432128.962 7  -4141497.181 9
  22344005.237   -10003532.951 6  -7664656.568 7
  23722664.636    -1617142.391 5  -1197530.172 4
  20876310.620     3750534.059 7   2937650.984 9
  20423546.128    -2888737.651 7  -2210388.331 9
  20729106.854    -9125751.686 7  -7031083.035 9
  23854001.620     2648063.093 5   2092899.887 5
  23300058.667    10304620.854 5   7988029.305 5
 94  2 17 22 10 59.9990000  0  8 31  2 16 18 19 27 28 29
  21731451.003    -5426857.466 7  -4137389.523 9
  22329479.964   -10079862.470 6  -7724134.075 7
  23716174.550    -1651247.632 5  -1224105.651 4
  20888058.300     3812269.072 7   2985756.154 9
  20422883.722    -2892218.447 7  -2213100.639 9
  20719609.808    -9175659.750 7  -7069972.412 9
  23864859.831     2705119.571 5   2137359.459 5
  23317893.644    10398345.100 5   8061061.040 5
 94  2 17 22 11 29.9990000  0  8 31  2 16 18 19 27 28 29
  21732547.120    -5421098.076 7  -4132901.695 9
  22314982.011   -10156050.500 6  -7783501.331 7
  23709762.034    -1684949.454 5  -1250366.777 4
  20899862.097     3874297.425 7   3034089.908 9
  20422236.917    -2895617.761 7  -2215749.457 9
  20710121.339    -9225521.192 7  -7108825.458 9
  23875775.667     2762481.752 5   2182057.186 5
  23335740.269    10492125.551 5   8134136.590 5
 94  2 17 22 11 59.9990000  0  8 31  2 16 18 19 27 28 29
  21733756.479    -5414739.917 7  -4127947.293 9
  22300531.300   -10231987.898 6  -7842673.293 7
  23703447.729    -1718135.227 5  -1276225.781 4
  20911741.026     3936721.964 7   3082732.368 9
  20421624.636    -2898835.343 7  -2218256.659 9
  20700662.315    -9275229.468 7  -7147559.151 9
  23886766.112     2820244.679 5   2227067.214 5
  23353617.144    10586074.854 5   8207343.713 5
 94  2 17 22 12 29.9990000  0  7 31  2 16 18 19 27 29
  21735090.565    -5407730.232 7  -4122485.218 8
  22286137.237   -10307630.448 6  -7901615.513 7
  23697240.745    -1750748.903 5  -1301638.999 4
  20923705.784     3999597.504 7   3131726.263 9
  20421054.495    -2901831.557 7  -2220591.370 9
  20691239.011    -9324747.741 7  -7186144.792 9
  23371539.644    10680254.247 5   8280730.113 5
 94  2 17 22 12 59.9990000  0  7 31  2 16 18 19 27 29
  21736544.433    -5400091.133 7  -4116532.685 8
  22271794.206   -10383004.753 6  -7960348.702 7
  23691142.909    -1782792.382 5  -1326607.897 5
  20935757.487     4062929.979 7   3181076.211 9
  20420525.112    -2904614.737 7  -2222760.076 9
  20681851.026    -9374083.530 7  -7224588.240 9
  23389506.511    10774671.808 5   8354302.107 5
 94  2 17 22 13 29.9990000  0  7 31  2 16 18 19 27 29
  21738111.440    -5391858.228 7  -4110117.450 8
  22257495.597   -10458140.904 6  -8018896.320 7
  23685145.581    -1814311.367 5  -1351168.127 4
  20947893.644     4126703.656 7   3230769.953 9
  20420031.151    -2907210.221 7  -2224782.537 9
  20672491.620    -9423266.435 7  -7262912.555 9
  23407513.761    10869297.887 5   8428036.573 5
 94  2 17 22 13 59.9990000  0  7 31  2 16 18 19 27 29
  21739803.394    -5382963.478 6  -4103186.494 8
  22243256.433   -10532973.368 6  -8077207.296 7
  23679257.394    -1845253.211 5  -1375278.626 5
  20960126.089     4190984.919 7   3280859.210 9
  20419585.472    -2909551.291 7  -2226606.758 9
  20663175.347    -9472224.071 7  -7301061.342 9
  23425572.659    10964200.456 5   8501986.494 5
 94  2 17 22 14 29.9990000  0  7 31  2 16 18 19 27 29
  21741612.683    -5373456.801 6  -4095778.722 8
  22229067.128   -10607537.122 6  -8135308.897 8
  23673469.401    -1875663.911 5  -1398975.254 5
  20972443.972     4255717.170 7   3331299.885 9
  20419179.464    -2911685.703 7  -2228269.939 9
  20653896.144    -9520985.343 7  -7339057.122 9
  23443674.417    11059328.028 5   8576111.744 5
 94  2 17 22 14 59.9990000  0  7 31  2 16 18 19 27 29
  21743527.675    -5363392.909 6  -4087936.751 8
  22214923.995   -10681859.531 6  -8193222.426 7
  23667773.222    -1905603.535 5  -1422304.817 5
  20984835.425     4320832.168 7   3382038.808 9
  20418804.737    -2913654.768 7  -2229804.280 9
  20644646.128    -9569594.895 7  -7376934.673 9
  23461807.948    11154620.264 5   8650365.274 5
 94  2 17 22 15 29.9990000  0  7 31  2 16 18 19 27 29
  21745550.229    -5352766.246 6  -4079656.265 8
  22200830.878   -10755919.348 6  -8250931.341 7
  23662165.159    -1935073.395 5  -1445268.314 4
  20997295.784     4386313.420 7   3433063.119 9
  20418463.245    -2915449.168 7  -2231202.522 9
  20635426.769    -9618043.200 7  -7414686.580 9
  23479971.331    11250065.568 5   8724738.108 5
 94  2 17 22 15 59.9990000  0  7 31  2 16 18 19 27 29
  21747683.815    -5341554.279 6  -4070919.695 8
  22186794.604   -10829681.408 6  -8308408.234 7
  23656654.706    -1964027.111 5  -1467829.626 5
  21009827.401     4452166.306 7   3484377.019 9
  20418162.292    -2917030.918 7  -2232435.060 9
  20626246.769    -9666285.680 7  -7452278.111 9
  23498167.362    11345687.439 5   8799248.526 5
 94  2 17 22 16 29.9990000  0  7 31  2 16 18 19 27 29
  21749931.183    -5329743.628 6  -4061716.612 8
  22172820.058   -10903115.568 6  -8365629.619 7
  23651249.026    -1992435.779 5  -1489966.242 5
  21022434.792     4518417.161 7   3536001.028 9
  20417906.886    -2918373.207 7  -2233480.997 9
  20617107.589    -9714312.138 7  -7489701.315 9
  23516402.347    11441513.205 5   8873917.793 5
 94  2 17 22 16 59.9990000  0  7 31  2 16 18 19 27 29
  21752295.823    -5317320.144 7  -4052035.997 8
  22158907.644   -10976226.389 6  -8422599.050 7
  23645948.870    -2020286.362 5  -1511667.984 5
  21035120.800     4585083.978 7   3587949.159 9
  20417700.542    -2919456.901 7  -2234325.438 9
  20608007.433    -9762133.915 7  -7526965.034 9
  23534681.956    11537564.700 5   8948762.972 5
 94  2 17 22 17 29.9990000  0  7 31  2 16 18 19 27 29
  21754777.456    -5304277.754 6  -4041873.112 8
  22145054.073   -11049026.497 6  -8479326.362 8
  23640755.972    -2047577.227 5  -1532933.564 4
  21047888.073     4652177.369 7   3640229.684 9
  20417544.019    -2920279.977 7  -2234966.798 9
  20598946.620    -9809748.492 7  -7564067.301 9
  23553001.862    11633839.760 5   9023782.347 5
 94  2 17 22 17 59.9990000  0  7 31  2 16 18 19 27 29
  21757377.300    -5290612.498 6  -4031224.873 8
  22131257.878   -11121526.138 6  -8535819.544 7
  23635668.237    -2074312.980 5  -1553766.611 3
  21060738.331     4719705.109 7   3692848.666 9
  20417434.339    -2920856.277 7  -2235415.874 9
  20589924.175    -9857160.203 7  -7601011.488 9
  23571365.323    11730339.106 5   9098976.485 5
 94  2 17 22 18 29.9990000  0  7 31  2 16 18 19 27 29
  21760096.581    -5276322.578 6  -4020089.875 8
  22117517.261   -11193732.959 6  -8592084.553 7
  23630683.347    -2100506.787 5  -1574177.369 5
  21073671.409     4787670.353 7   3745808.559 9
  20417367.979    -2921205.513 7  -2235688.022 9
  20580939.308    -9904376.910 7  -7637803.718 9
  23589769.581    11827051.500 5   9174336.646 5
 94  2 17 22 18 59.9990000  0  7 31  2 16 18 19 27 29
  21762932.636    -5261419.787 6  -4008477.315 8
  22103829.894   -11265662.093 6  -8648133.184 8
  23625799.870    -2126176.067 5  -1594179.412 5
  21086682.198     4856042.034 7   3799085.162 9
  20417344.315    -2921330.246 7  -2235785.220 9
  20571992.386    -9951392.267 7  -7674439.057 9
  23608205.011    11923941.647 5   9249835.294 5
 94  2 17 22 19 29.9990000  0  7 31  2 16 18 19 27 29
  21765885.511    -5245902.683 6  -3996386.067 8
  22090196.558   -11337306.092 6  -8703959.621 7
  23621014.198    -2151320.960 5  -1613772.813 5
  21099767.909     4924808.996 7   3852669.775 9
  20417362.761    -2921232.609 7  -2235709.139 9
  20563086.886    -9998191.802 7  -7710906.221 9
  23626674.737    12020989.140 5   9325456.536 2
 94  2 17 22 19 59.9990000  0  7 31  2 16 18 19 27 29
  21768952.261    -5229785.073 6  -3983826.895 8
  22076615.573   -11408674.410 6  -8759571.248 8
  23616329.558    -2175938.894 5  -1632955.615 5
  21112927.128     4993960.859 7   3906554.309 9
  20417422.948    -2920916.788 7  -2235463.045 9
  20554221.854   -10044777.172 7  -7747206.505 9
  23645170.565    12118188.810 5   9401196.387 4
 94  2 17 22 20 29.9990000  0  7 31  2 16 18 19 27 29
  21772133.784    -5213068.490 6  -3970800.996 8
  22063085.503   -11479772.312 6  -8814972.160 8
  23611745.011    -2200030.446 5  -1651728.244 5
  21126157.190     5063486.291 7   3960729.938 9
  20417527.940    -2920365.643 7  -2235033.585 9
  20545397.979   -10091148.385 7  -7783339.911 9
  23663692.003    12215524.861 4   9477042.500 4
 94  2 17 22 20 59.9990000  0  7 31  2 16 18 19 27 29
  21775426.933    -5195761.462 6  -3957315.003 8
  22049604.503   -11550614.608 6  -8870173.894 8
  23607260.300    -2223601.009 5  -1670094.934 5
  21139458.636     5133383.928 7   4015195.594 9
  20417678.206    -2919572.938 7  -2234415.893 9
  20536610.769   -10137325.191 7  -7819321.830 9
  23682239.479    12312985.481 5   9552985.680 4
 94  2 17 22 21 29.9990000  0  7 31  2 16 18 19 27 29
  21778828.597    -5177886.392 6  -3943386.384 8
  22036170.855   -11621210.131 6  -8925183.339 8
  23602870.073    -2246665.773 5  -1688067.466 5
  21152830.761     5203656.288 7   4069953.249 9
  20417867.776    -2918578.621 7  -2233641.099 9
  20527856.136   -10183330.351 7  -7855170.001 9
  23700809.620    12410570.252 5   9629025.570 5
 94  2 17 22 21 59.9990000  0  7 31  2 16 18 19 27 29
  21782334.269    -5159463.068 6  -3929030.556 8
  22022782.034   -11691568.608 6  -8980008.071 8
  23598576.448    -2269233.530 5  -1705652.717 5
  21166273.831     5274296.945 7   4124997.880 9
  20418091.526    -2917401.862 7  -2232724.139 9
  20519131.987   -10229176.253 7  -7890894.073 9
  23719400.909    12508273.390 4   9705157.723 2
 94  2 17 22 22 29.9990000  0  7 31  2 16 18 19 27 29
  21785944.261    -5140493.750 6  -3914249.270 8
  22009439.940   -11761680.930 6  -9034640.990 8
  23594377.011    -2291302.022 5  -1722848.946 5
  21179785.050     5345299.210 7   4180324.282 9
  20418346.894    -2916059.989 7  -2231678.524 9
  20510435.355   -10274876.759 7  -7926504.838 9
  23738014.558    12606085.186 4   9781374.555 4
 94  2 17 22 22 59.9990000  0  7 31  2 16 18 19 27 29
  21789655.159    -5120992.619 6  -3899053.599 8
  21996143.276   -11831555.392 6  -9089088.573 8
  23590271.722    -2312873.410 5  -1739657.824 5
  21193363.315     5416655.183 7   4235926.301 9
  20418628.815    -2914579.368 7  -2230524.783 9
  20501763.315   -10320447.432 7  -7962014.434 9
  23756649.261    12704008.298 4   9857678.075 3
 94  2 17 22 23 29.9990000  0  7 31  2 16 18 19 27 29
  21793465.245    -5100969.511 6  -3883451.190 8
  21982891.534   -11901193.343 6  -9143351.853 8
  23586261.081    -2333949.294 5  -1756080.590 5
  21207006.050     5488345.052 7   4291788.500 9
  20418934.909    -2912969.244 7  -2229270.137 9
  20493115.925   -10365889.440 7  -7997423.771 9
  23775304.604    12802045.284 4   9934070.405 4
 94  2 17 22 23 59.9990000  0  7 31  2 16 18 19 27 29
  21797377.683    -5080409.636 6  -3867430.522 8
  21969682.417   -11970608.215 6  -9197441.303 8
  23582345.581    -2354522.604 5  -1772111.725 5
  21220709.370     5560358.030 7   4347902.470 9
  20419269.401    -2911211.667 7  -2227900.590 9
  20484493.425   -10411200.884 7  -8032731.375 9
  23793980.894    12900189.467 4  10010546.228 3
 94  2 17 22 24 29.9990000  0  6 31  2 16 18 19 27
  21801396.659    -5059291.237 6  -3850974.633 8
  21956515.792   -12039798.416 6  -9251355.684 8
  23578524.597    -2374603.073 5  -1787758.837 5
  21234477.979     5632712.452 7   4404282.497 9
  20419636.315    -2909284.699 7  -2226399.050 9
  20475898.229   -10456368.924 7  -8067927.231 9
 94  2 17 22 24 59.9990000  0  6 31  2 16 18 19 27
  21805522.995    -5037607.265 6  -3834078.030 8
  21943391.636   -12108765.613 6  -9305096.289 8
  23574795.620    -2394202.825 5  -1803031.365 5
  21248312.183     5705411.197 7   4460930.825 9
  20420040.308    -2907160.857 7  -2224744.104 9
  20467333.581   -10501376.673 7  -8102998.183 9
 94  2 17 22 25 29.9990000  0  6 31  2 16 18 19 27
  21809756.253    -5015360.023 6  -3816742.508 8
  21930312.089   -12177498.976 6  -9358654.681 8
  23571155.894    -2413327.653 5  -1817933.834 5
  21262211.261     5778453.576 7   4517846.918 9
  20420485.511    -2904822.824 7  -2222922.254 9
  20458802.847   -10546205.455 7  -8137929.680 9
 94  2 17 22 25 59.9990000  0  6 31  2 16 18 19 27
  21814099.362    -4992540.362 6  -3798960.951 8
  21917280.292   -12245980.020 6  -9412016.460 8
  23567606.964    -2431981.056 5  -1832468.950 5
  21276177.792     5851846.091 7   4575035.839 9
  20420973.073    -2902260.160 7  -2220925.378 9
  20450309.636   -10590837.675 7  -8172708.015 9
 94  2 17 22 26 29.9990000  0  6 31  2 16 18 19 27
  21818548.315    -4969158.313 6  -3780741.173 8
  21904299.792   -12314194.593 6  -9465170.601 8
  23564145.964    -2450164.716 5  -1846638.022 5
  21290209.690     5925585.179 7   4632494.823 9
  20421503.464    -2899472.639 7  -2218753.283 9
  20441852.456   -10635280.590 7  -8207338.829 9
 94  2 17 22 26 59.9990000  0  6 31  2 16 18 19 27
  21823101.854    -4945229.345 6  -3762095.225 8
  21891371.440   -12382133.238 6  -9518109.726 8
  23560778.440    -2467859.535 5  -1860426.173 5
  21304304.776     5999655.743 7   4690212.102 9
  20422075.456    -2896466.735 7  -2216411.028 9
  20433430.776   -10679537.881 7  -8241825.007 9
 94  2 17 22 27 29.9990000  0  6 31  2 16 18 19 27
  21827759.714    -4920753.923 6  -3743023.468 8
  21878496.620   -12449790.930 6  -9570829.929 8
  23557506.292    -2485056.091 5  -1873826.091 5
  21318464.698     6074065.932 7   4748194.014 8
  20422685.456    -2893261.246 7  -2213913.246 9
  20425043.229   -10723614.156 7  -8276170.134 9
 94  2 17 22 27 59.9990000  0  6 31  2 16 18 19 27
  21832523.065    -4895721.041 6  -3723517.332 8
  21865674.815   -12517168.557 6  -9623331.897 8
  23554331.987    -2501738.456 5  -1886825.337 5
  21332692.073     6148829.869 7   4806451.582 8
  20423332.034    -2889863.223 7  -2211265.437 9
  20416689.737   -10767513.068 7  -8310377.056 9
 94  2 17 22 28 29.9990000  0  6 31  2 16 18 19 27
  21837392.058    -4870134.814 7  -3703580.013 8
  21852903.401   -12584283.751 6  -9675629.382 8
  23551256.401    -2517901.908 5  -1899420.204 4
  21346988.409     6223959.397 7   4864994.032 8
  20424014.190    -2886279.173 7  -2208472.671 9
  20408369.167   -10811237.189 7  -8344447.775 9
 94  2 17 22 28 59.9990000  0  6 31  2 16 18 19 27
  21842368.120    -4843983.786 6  -3683202.594 8
  21840180.425   -12651143.579 6  -9727727.878 8
  23548281.347    -2533538.249 5  -1911604.349 5
  21361356.620     6299463.646 7   4923828.460 8
  20424731.511    -2882508.744 7  -2205534.679 9
  20400085.550   -10854768.759 7  -8378368.460 9
 94  2 17 22 29 29.9990000  0  6 31  2 16 18 19 27
  21847455.597    -4817248.963 7  -3662370.281 8
  21827505.261   -12717752.970 6  -9779631.230 8
  23545405.776    -2548642.152 5  -1923373.623 5
  21375796.761     6375348.914 7   4982959.796 9
  20425486.308    -2878543.549 7  -2202444.920 9
  20391840.886   -10898094.405 7  -8412128.686 9
 94  2 17 22 29 59.9990000  0  6 31  2 16 18 19 27
  21852653.979    -4789933.672 7  -3641085.653 8
  21814877.362   -12784110.913 6  -9831338.650 8
  23542634.089    -2563210.360 5  -1934725.446 5
  21390308.831     6451606.961 7   5042381.607 8
  20426282.042    -2874361.884 7  -2199186.478 9
  20383636.495   -10941208.743 7  -8445724.257 9
 94  2 17 22 30 29.9990000  0  6 31  2 16 18 19 27
  21857963.534    -4762031.781 7  -3619343.934 8
  21802300.878   -12850201.403 6  -9882837.667 8
  23539963.386    -2577243.778 5  -1945660.571 5
  21404889.589     6528229.837 7   5102087.700 9
  20427122.362    -2869946.478 7  -2195745.901 9
  20375473.331   -10984106.157 7  -8479150.795 9
 94  2 17 22 30 59.9990000  0  6 31  2 16 18 19 27
  21863382.940    -4733551.796 7  -3597151.764 8
  21789777.886   -12916009.932 6  -9934116.978 8
  23537395.620    -2590741.729 5  -1956178.422 5
  21419535.651     6605195.974 7   5162061.270 9
  20428008.167    -2865291.331 7  -2192118.509 9
  20367350.597   -11026791.599 7  -8512412.158 9
 94  2 17 22 31 29.9990000  0  6 31  2 16 18 19 27
  21868910.534    -4704503.735 7  -3574516.928 8
  21777312.065   -12981517.339 6  -9985161.655 8
  23534928.737    -2603703.666 5  -1966278.624 5
  21434247.448     6682506.059 7   5222302.853 9
  20428941.948    -2860383.228 7  -2188294.011 9
  20359268.862   -11069261.437 7  -8545505.521 9
 94  2 17 22 31 59.9990000  0  6 31  2 16 18 19 27
  21874544.362    -4674897.262 7  -3551446.958 8
  21764904.175   -13046720.509 6 -10035969.262 8
  23532561.198    -2616143.113 5  -1975971.679 5
  21449022.370     6760150.102 7   5282804.660 9
  20429923.034    -2855228.510 7  -2184277.348 9
  20351225.909   -11111527.559 7  -8578440.145 9
 94  2 17 22 32 29.9990000  0  6 31  2 16 18 19 27
  21880285.800    -4644725.756 7  -3527936.710 8
  21752553.331   -13111623.945 6 -10086543.314 8
  23530292.940    -2628065.098 5  -1985261.535 5
  21463861.151     6838126.339 7   5343565.321 9
  20430947.995    -2849841.738 7  -2180079.860 9
  20343224.542   -11153574.649 7  -8611204.098 9
 94  2 17 22 32 59.9990000  0  6 31  2 16 18 19 27
  21886135.886    -4613982.687 6  -3503981.091 8
  21740258.878   -13176232.698 6 -10136887.750 8
  23528122.636    -2639469.017 5  -1994147.679 5
  21478765.355     6916449.538 7   5404596.342 9
  20432019.245    -2844212.125 7  -2175693.146 9
  20335267.487   -11195390.372 7  -8643787.759 9
 94  2 17 22 33 29.9990000  0  6 31  2 16 18 19 27
  21892094.784    -4582670.970 7  -3479582.373 8
  21728017.698   -13240560.315 6 -10187013.120 8
  23526049.612    -2650363.793 5  -2002637.141 5
  21493736.722     6995121.601 7   5465899.196 9
  20433136.120    -2838342.136 7  -2171119.125 9
  20327355.019   -11236970.422 7  -8676187.774 9
 94  2 17 22 33 59.9990000  0  6 31  2 16 18 19 27
  21898161.667    -4550787.567 7  -3454738.173 8
  21715828.534   -13304615.148 6 -10236925.932 8
  23524071.784    -2660757.386 5  -2010736.016 5
  21508771.276     7074129.696 7   5527463.898 9
  20434297.214    -2832240.356 7  -2166364.488 9
  20319486.839   -11278317.388 7  -8708406.171 9
 94  2 17 22 34 29.9980000  0  6 31  2 16 18 19 27
  21904335.842    -4518344.096 7  -3429457.562 8
  21703691.764   -13368395.287 6 -10286624.701 8
  23522188.037    -2670653.769 5  -2018447.464 5
  21523871.467     7153481.023 7   5589296.053 9
  20435503.959    -2825899.177 7  -2161423.305 9
  20311663.639   -11319429.006 7  -8740441.188 9
 94  2 17 22 34 59.9980000  0  6 31  2 16 18 19 27
  21910616.154    -4485340.297 6  -3403740.338 8
  21691607.764   -13431894.263 6 -10336104.382 8
  23520400.678    -2680048.223 5  -2025767.817 5
  21539037.467     7233179.419 7   5651398.647 9
  20436759.865    -2819299.462 7  -2156280.663 9
  20303882.428   -11360318.995 7  -8772303.507 9
 94  2 17 22 35 29.9980000  0  6 31  2 16 18 19 27
  21917004.826    -4451767.351 6  -3377579.609 8
  21679581.154   -13495093.797 6 -10385350.736 8
  23518711.982    -2688919.298 5  -2032680.332 5
  21554268.568     7313219.405 7   5713767.416 9
  20438064.748    -2812442.727 7  -2150937.747 9
  20296146.545   -11400970.768 7  -8803980.204 9
 94  2 17 22 35 59.9980000  0  6 31  2 16 18 19 27
  21923504.006    -4417612.013 6  -3350965.070 8
  21667612.545   -13557988.731 6 -10434359.735 8
  23517126.232    -2697257.280 5  -2039177.456 5
  21569565.912     7393606.177 7   5776406.410 8
  20439416.772    -2805336.145 7  -2145400.149 9
  20288454.342   -11441394.230 7  -8835478.996 9
 94  2 17 22 36 29.9980000  0  6 31  2 16 18 19 27
  21930114.607    -4382874.019 6  -3323896.514 8
  21655701.662   -13620582.630 6 -10483134.169 8
  23515641.951    -2705057.139 5  -2045255.289 5
  21584930.381     7474345.917 7   5839320.439 8
  20440815.428    -2797987.255 7  -2139673.744 9
  20280804.506   -11481593.082 7  -8866802.771 9
 94  2 17 22 36 59.9980000  0  6 31  2 16 18 19 27
  21936839.045    -4347537.123 6  -3296361.288 8
  21643847.436   -13682876.835 6 -10531675.073 8
  23514263.147    -2712302.459 5  -2050900.984 5
  21600360.350     7555432.334 7   5902504.607 8
  20442256.584    -2790414.109 7  -2133772.592 9
  20273198.975   -11521560.858 7  -8897946.479 9
 94  2 17 22 37 29.9980000  0  6 31  2 16 18 19 27
  21943675.717    -4311612.379 6  -3268367.997 8
  21632047.725   -13744884.917 6 -10579993.026 8
  23512989.850    -2718995.288 5  -2056116.158 5
  21615857.803     7636871.590 7   5965963.711 8
  20443735.990    -2782638.096 7  -2127713.362 9
  20265637.373   -11561296.974 7  -8928909.674 9
 94  2 17 22 37 59.9980000  0  6 31  2 16 18 19 27
  21950621.717    -4275110.760 6  -3239925.194 8
  21620301.272   -13806610.774 6 -10628091.069 8
  23511816.982    -2725155.539 5  -2060916.355 5
  21631422.443     7718665.448 7   6029699.127 8
  20445254.029    -2774661.605 7  -2121497.912 9
  20258119.170   -11600805.874 7  -8959695.818 9
 94  2 17 22 38 29.9980000  0  6 31  2 16 18 19 27
  21957672.967    -4238055.277 6  -3211050.813 8
  21608605.529   -13868072.517 6 -10675983.299 8
  23510743.092    -2730801.320 5  -2065315.675 5
  21647053.662     7800806.789 7   6093705.318 8
  20446810.147    -2766485.223 7  -2115126.704 9
  20250645.240   -11640080.946 7  -8990299.766 9
 94  2 17 22 38 59.9980000  0  6 31  2 16 18 19 27
  21964828.701    -4200450.564 6  -3181748.462 8
  21596962.029   -13929259.007 6 -10723661.048 8
  23509764.834    -2735941.879 5  -2069321.307 5
  21662751.029     7883299.296 6   6157985.131 8
  20448407.717    -2758088.833 7  -2108584.063 9
  20243217.975   -11679112.571 7  -9020714.004 9
 94  2 17 22 39 29.9980000  0  6 31  2 16 18 19 27
  21972088.459    -4162300.385 6  -3152021.076 8
  21585371.100   -13990170.545 7 -10771124.539 9
  23508878.881    -2740596.711 5  -2072948.457 5
  21678514.326     7966134.511 7   6222532.000 8
  20450050.514    -2749455.843 7  -2101857.065 9
  20235836.303   -11717903.179 7  -9050940.436 9
 94  2 17 22 39 59.9980000  0  6 31  2 16 18 19 27
  21979454.303    -4123590.224 7  -3121857.344 8
  21573835.646   -14050789.782 7 -10818360.263 9
  23508086.373    -2744762.357 5  -2076194.426 5
  21694340.178     8049302.538 6   6287338.202 8
  20451743.061    -2740562.309 7  -2094927.042 9
  20228500.615   -11756452.969 7  -9080979.215 9
 94  2 17 22 40 29.9980000  0  6 31  2 16 18 19 27
  21986930.232    -4084309.120 7  -3091248.710 8
  21562356.506   -14111114.514 7 -10865366.496 9
  23507388.951    -2748422.636 5  -2079046.593 5
  21710230.482     8132803.766 7   6352404.043 8
  20453486.834    -2731397.578 7  -2087785.701 9
  20221208.131   -11794774.340 7  -9110840.002 9
 94  2 17 22 40 59.9980000  0  6 31  2 16 18 19 27
  21994516.670    -4044442.565 7  -3060183.890 8
  21550938.021   -14171117.728 7 -10912122.192 9
  23506793.053    -2751559.043 5  -2081490.560 5
  21726182.670     8216634.110 6   6417726.339 7
  20455283.771    -2721954.836 7  -2080427.734 9
  20213960.053   -11832862.742 7  -9140519.254 9
 94  2 17 22 41 29.9980000  0  6 31  2 16 18 19 27
  22002211.037    -4004007.739 7  -3028676.255 8
  21539578.787   -14230811.457 7 -10958636.735 9
  23506296.521    -2754164.882 5  -2083521.103 5
  21742194.529     8300777.161 6   6483292.302 7
  20457131.756    -2712243.364 7  -2072860.364 9
  20206753.553   -11870734.018 7  -9170029.325 9
 94  2 17 22 41 59.9980000  0  6 31  2 16 18 19 27
  22010009.662    -3963023.179 6  -2996740.255 8
  21528278.709   -14290192.696 7 -11004907.768 9
  23505903.592    -2756232.357 5  -2085132.141 5
  21758266.045     8385233.168 6   6549102.128 7
  20459029.451    -2702271.498 7  -2065090.087 9
  20199588.350   -11908388.258 7  -9199370.278 9
 94  2 17 22 42 29.9980000  0  6 31  2 16 18 19 27
  22017909.912    -3921507.719 6  -2964390.560 8
  21517036.787   -14349269.457 7 -11050941.548 9
  23505608.975    -2757776.235 5  -2086335.182 5
  21774395.928     8469995.403 6   6615150.569 7
  20460972.475    -2692061.535 7  -2057134.279 9
  20192467.131   -11945809.609 7  -9228529.758 9
 94  2 17 22 42 59.9980000  0  6 31  2 16 18 19 27
  22025905.264    -3879491.269 6  -2931650.485 8
  21505850.568   -14408053.642 7 -11096747.342 9
  23505410.537    -2758821.518 5  -2087149.695 5
  21790578.951     8555037.562 6   6681417.137 7
  20462958.436    -2681624.463 7  -2049001.509 9
  20185390.311   -11982997.949 7  -9257507.665 9
 94  2 17 22 43 29.9980000  0  6 31  2 16 18 19 27
  22033998.154    -3836965.078 6  -2898513.221 8
  21494718.443   -14466552.094 7 -11142330.491 9
  23505306.732    -2759368.582 5  -2087575.995 5
  21806815.248     8640359.314 6   6747901.565 7
  20464988.576    -2670955.618 7  -2040688.132 9
  20178360.115   -12019941.037 7  -9286294.475 9
 94  2 17 22 43 59.9980000  0  6 31  2 16 18 19 27
  22042194.498    -3793891.959 6  -2864949.766 8
  21483641.186   -14524763.119 7 -11187689.662 9
  23505298.326    -2759411.510 5  -2087609.467 5
  21823106.631     8725969.960 6   6814611.113 7
  20467062.920    -2660054.277 7  -2032193.586 9
  20171381.959   -12056611.674 7  -9314868.983 9
 94  2 17 22 44 29.9980000  0  6 31  2 16 18 19 27
  22050497.162    -3750261.262 6  -2830951.824 8
  21472615.631   -14582702.174 7 -11232836.919 9
  23505385.154    -2758957.776 5  -2087255.911 5
  21839453.178     8811871.637 6   6881547.434 7
  20469182.318    -2648916.452 7  -2023514.763 9
  20164454.295   -12093017.137 7  -9343236.867 9
 94  2 17 22 44 59.9980000  0  6 31  2 16 18 19 27
  22058906.717    -3706070.172 6  -2796517.219 8
  21461641.639   -14640371.314 7 -11277773.850 9
  23505568.623    -2757990.655 5  -2086502.320 5
  21855858.357     8898081.066 6   6948723.561 7
  20471350.232    -2637524.320 7  -2014637.785 9
  20157573.748   -12129174.187 7  -9371411.182 9
 94  2 17 22 45 29.9980000  0  6 31  2 16 18 19 27
  22067424.396    -3661308.181 6  -2761637.744 7
  21450716.717   -14697779.336 7 -11322507.321 9
  23505849.811    -2756513.088 5  -2085351.004 5
  21872323.811     8984608.779 6   7016147.702 7
  20473567.928    -2625871.954 7  -2005558.016 9
  20150741.818   -12165076.869 7  -9399387.287 9
 94  2 17 22 45 59.9980000  0  6 31  2 16 18 19 27
  22076049.115    -3615985.322 6  -2726321.233 8
  21439845.553   -14754909.835 7 -11367024.540 9
  23506228.545    -2754524.254 5  -2083801.285 5
  21888853.701     9071469.888 6   7083831.629 7
  20475838.951    -2613936.966 7  -1996258.032 9
  20143958.443   -12200724.012 7  -9427164.272 9
 94  2 17 22 46 29.9980000  0  6 31  2 16 18 19 27
  22084773.357    -3570140.125 6  -2690597.706 7
  21429029.357   -14811749.392 7 -11411315.055 9
  23506702.670    -2752034.024 5  -2081860.851 5
  21905442.272     9158644.848 6   7151760.119 8
  20478165.068    -2601712.026 7  -1986732.113 9
  20137220.920   -12236129.836 7  -9454753.224 9
 94  2 17 22 46 59.9980000  0  6 31  2 16 18 19 27
  22093596.654    -3523772.931 6  -2654467.429 7
  21418271.873   -14868280.472 7 -11455365.207 9
  23507271.514    -2749041.744 5  -2079529.259 5
  21922089.029     9246120.799 6   7219923.141 8
  20480547.154    -2589195.654 7  -1976979.101 9
  20130532.748   -12271276.601 7  -9482140.307 9
 94  2 17 22 47 29.9980000  0  6 31  2 16 18 19 27
  22102521.529    -3476872.429 6  -2617921.591 7
  21407572.740   -14924503.240 7 -11499175.118 9
  23507934.490    -2745558.383 5  -2076814.960 5
  21938788.475     9333879.225 6   7288306.276 8
  20482981.615    -2576400.389 7  -1967008.772 9
  20123895.412   -12306154.807 7  -9509318.129 9
 94  2 17 22 47 59.9980000  0  7 31  2 16 18 19  7 27
  22111545.967    -3429446.396 6  -2580966.247 8
  21396934.295   -14980409.526 7 -11542738.420 9
  23508694.232    -2741567.061 5  -2073704.858 5
  21955541.100     9421915.750 6   7356906.112 8
  20485466.482    -2563344.599 7  -1956835.429 9
  23535473.811      -19178.78415
  20117308.584   -12340769.280 7  -9536290.443 9
 94  2 17 22 48 29.9980000  0  7 31  2 16 18 19  7 27
  22120673.186    -3381482.942 6  -2543592.138 7
  21386354.131   -15036008.189 7 -11586062.022 9
  23509551.186    -2737062.896 5  -2070195.135 5
  21972349.787     9510244.703 6   7425733.808 8
  20487996.076    -2550050.445 7  -1946476.353 9
  23513575.693     -134252.275 5
  20110772.404   -12375117.843 7  -9563055.547 9
 94  2 17 22 48 59.9980000  0  7 31  2 16 18 19  7 27
  22129906.600    -3332962.805 6  -2505784.254 7
  21375828.209   -15091321.482 7 -11629163.255 9
  23510505.834    -2732049.164 5  -2066288.348 5
  21989219.201     9598889.404 6   7494807.536 7
  20490569.748    -2536526.414 7  -1935938.149 9
  23791477.896     -249288.145 5    -50789.25614
  20104287.998   -12409193.511 7  -9589608.011 9
 94  2 17 22 49 29.9980000  0  7 31  2 16 18 19  7 27
  22139243.146    -3283894.965 6  -2467549.590 7
  21365354.271   -15146361.000 7 -11672051.155 9
  23511558.420    -2726522.895 5  -2061982.179 5
  22006148.584     9687859.342 6   7564134.705 7
  20493185.396    -2522780.999 7  -1925227.440 9
  23769595.850     -364278.189 5   -140391.679 3
  20097854.670   -12443001.695 7  -9615952.038 9
 94  2 17 22 49 59.9980000  0  7 31  2 16 18 19  7 27
  22148678.701    -3234309.463 6  -2428911.548 7
  21354932.584   -15201128.744 7 -11714727.286 9
  23512703.545    -2720500.727 5  -2057289.616 5
  22023138.584     9777141.292 6   7633704.999 7
  20495840.686    -2508827.297 7  -1914354.430 9
  23747720.967     -479225.025 5   -229960.368 4
  20091470.975   -12476547.977 7  -9642091.985 9
 94  2 17 22 50 29.9980000  0  7 31  2 16 18 19  7 27
  22158215.154    -3184198.616 6  -2389864.144 7
  21344564.193   -15255615.989 7 -11757184.844 9
  23513943.131    -2713985.303 5  -2052212.703 5
  22040187.201     9866731.560 6   7703515.538 7
  20498539.404    -2494644.783 7  -1903303.124 9
  23725860.686     -594097.313 4   -319470.985 5
  20085139.803   -12509818.990 7  -9668017.437 9
 94  2 17 22 50 59.9980000  0  7 31  2 16 18 19  7 27
  22167850.787    -3133564.735 6  -2350409.183 7
  21334251.662   -15309808.535 7 -11799412.762 9
  23515279.732    -2706961.632 5  -2046739.727 5
  22057291.092     9956612.045 6   7773552.215 7
  20501286.311    -2480210.623 7  -1892055.731 9
  23704017.467     -708889.705 5   -408919.321 4
  20078861.771   -12542808.421 7  -9693723.473 9
 94  2 17 22 51 29.9980000  0  7 31  2 16 18 19  7 27
  22177582.131    -3082424.019 6  -2310559.285 7
  21323998.295   -15363690.267 7 -11841398.487 9
  23516713.256    -2699426.318 5  -2040868.096 5
  22074443.881    10046751.765 6   7843790.897 7
  20504080.318    -2465528.134 7  -1880614.837 9
  23682184.436     -823618.524 5   -498318.126 5
  20072634.818   -12575532.418 7  -9719222.677 9
 94  2 17 22 51 59.9980000  0  7 31  2 16 18 19  7 27
  22187409.232    -3030783.404 6  -2270319.860 7
  21313802.350   -15417269.180 7 -11883148.243 9
  23518243.537    -2691384.861 5  -2034602.068 5
  22091643.068    10137134.750 6   7914219.139 7
  20506924.646    -2450580.437 7  -1868967.284 9
  23660362.803     -938293.274 5   -587674.791 5
  20066454.553   -12608009.792 7  -9744529.712 9
 94  2 17 22 52 29.9980000  0  7 31  2 16 18 19  7 27
  22197331.201    -2978643.146 6  -2229691.101 7
  21303660.998   -15470563.135 7 -11924675.955 9
  23519871.139    -2682833.659 5  -2027938.800 4
  22108889.951    10227767.773 6   7984842.210 7
  20509823.240    -2435348.286 7  -1857098.082 9
  23638549.576    -1052918.299 4   -676992.710 4
  20060320.920   -12640243.461 7  -9769646.845 9
 94  2 17 22 52 59.9980000  0  7 31  2 16 18 19  7 27
  22207346.412    -2926014.009 6  -2188681.406 7
  21293572.006   -15523579.770 7 -11965987.572 9
  23521591.725    -2673789.915 5  -2020891.774 5
  22126183.037    10318643.103 6   8055654.097 7
  20512773.725    -2419843.315 7  -1845016.292 9
  23616742.732    -1167510.049 5   -766284.702 3
  20054231.647   -12672241.700 7  -9794580.535 9
 94  2 17 22 53 29.9980000  0  7 31  2 16 18 19  7 27
  22217453.920    -2872898.524 6  -2147292.741 7
  21283536.162   -15576319.744 7 -12007083.606 9
  23523403.420    -2664270.953 5  -2013474.433 5
  22143523.943    10409771.255 6   8126662.990 7
  20515775.842    -2404067.973 7  -1832723.826 9
  23594947.037    -1282049.401 5   -855535.886 5
  20048189.561   -12703992.350 7  -9819321.292 9
 94  2 17 22 53 59.9980000  0  7 31  2 16 18 19  7 27
  22227655.170    -2819291.118 6  -2105520.757 7
  21273547.717   -15628808.130 7 -12047983.599 9
  23525302.162    -2654296.686 5  -2005702.296 5
  22160916.772    10501168.111 6   8197881.258 7
  20518828.764    -2388024.757 7  -1820222.629 9
  23573162.959    -1396523.733 5   -944736.422 4
  20042197.381   -12735482.842 7  -9843859.336 9
 94  2 17 22 54 29.9980000  0  7 31  2 16 18 19  7 27
  22237951.373    -2765184.499 6  -2063359.777 7
  21263612.428   -15681017.315 7 -12088666.033 9
  23527286.725    -2643865.309 5  -1997573.981 5
  22178360.053    10592837.908 6   8269312.217 7
  20521930.178    -2371727.459 7  -1807523.451 9
  23551397.209    -1510908.116 5  -1033866.891 5
  20036258.014   -12766694.242 7  -9868179.910 9
 94  2 17 22 54 59.9980000  0  7 31  2 16 18 19  7 27
  22248343.318    -2710570.796 6  -2020803.671 7
  21253732.889   -15732934.781 7 -12129121.151 9
  23529358.568    -2632979.117 5  -1989091.261 5
  22195853.373    10684764.498 6   8340943.264 7
  20525076.467    -2355192.050 7  -1794638.723 9
  23529649.568    -1625196.220 5  -1122922.320 5
  20030368.803   -12797641.088 7  -9892294.334 9
 94  2 17 22 55 29.9980000  0  7 31  2 16 18 19  7 27
  22258833.834    -2655445.910 6  -1977849.240 7
  21243907.568   -15784567.926 7 -12169354.728 9
  23531517.459    -2621634.464 5  -1980251.311 4
  22213395.186    10776947.600 6   8412774.197 6
  20528270.897    -2338406.622 7  -1781559.179 9
  23507916.850    -1739393.391 5  -1211906.946 5
  20024528.459   -12828331.421 7  -9916208.882 9
 94  2 17 22 55 59.9980000  0  7 31  2 16 18 19  7 27
  22269422.607    -2599801.507 6  -1934489.997 7
  21234139.061   -15835901.489 7 -12209354.867 9
  23533768.154    -2609803.965 5  -1971032.766 5
  22230986.303    10869389.019 6   8484806.411 6
  20531516.451    -2321349.508 7  -1768267.928 9
  23486200.982    -1853502.835 5  -1300823.229 5
  20018740.459   -12858747.989 7  -9939910.104 9
 94  2 17 22 56 29.9980000  0  7 31  2 16 18 19  7 27
  22280106.201    -2543657.119 6  -1890741.148 7
  21224429.342   -15886924.998 7 -12249113.411 9
  23536113.904    -2597478.360 5  -1961428.413 5
  22248623.771    10962071.279 6   8557026.299 6
  20534813.529    -2304023.682 7  -1754767.297 9
  23464501.061    -1967541.347 5  -1389684.241 4
  20013003.951   -12888894.499 7  -9963400.891 9
 94  2 17 22 56 59.9980000  0  7 31  2 16 18 19  7 27
  22290886.381    -2487009.190 6  -1846599.925 7
  21214775.576   -15937657.870 7 -12288645.482 9
  23538553.787    -2584658.214 5  -1951438.741 5
  22266309.350    11055007.121 6   8629443.779 6
  20538164.115    -2286415.753 7  -1741046.837 9
  23442810.553    -2081526.012 5  -1478503.303 5
  20007320.732   -12918760.182 7  -9986672.853 9
 94  2 17 22 57 29.9980000  0  7 31  2 16 18 19  7 27
  22301759.287    -2429870.826 6  -1802076.549 7
  21205176.295   -15988102.254 7 -12327952.765 9
  23541086.092    -2571348.801 5  -1941067.784 5
  22284045.162    11148213.577 6   8702072.132 6
  20541567.951    -2268529.321 7  -1727109.358 9
  23421133.818    -2195439.722 5  -1567267.110 5
  20001696.147   -12948316.866 7 -10009704.036 9
 94  2 17 22 57 59.9980000  0  7 31  2 16 18 19  7 27
  22312723.670    -2372251.692 6  -1757178.558 7
  21195633.990   -16038246.380 7 -12367026.087 9
  23543710.951    -2557552.553 5  -1930317.497 5
  22301834.084    11241692.059 6   8774912.442 6
  20545020.834    -2250382.920 7  -1712969.314 9
  23399473.076    -2309265.364 5  -1655962.293 5
  19996131.279   -12977561.138 7 -10032491.783 9
 94  2 17 22 58 29.9980000  0  7 31  2 16 18 19  7 27
  22323780.709    -2314147.928 6  -1711902.925 7
  21186149.107   -16088089.914 7 -12405865.186 9
  23546426.834    -2543285.583 5  -1919200.409 5
  22319673.170    11335439.674 6   8847962.455 6
  20548523.029    -2231981.149 7  -1698630.274 9
  23377832.482    -2422989.414 5  -1744578.322 5
  19990621.147   -13006517.815 7 -10055055.426 9
 94  2 17 22 58 59.9980000  0  7 31  2 16 18 19  7 27
  22334924.959    -2255584.475 6  -1666269.075 7
  21176716.146   -16137660.204 7 -12444491.361 9
  23549223.623    -2528587.120 5  -1907747.086 5
  22337557.639    11429421.371 6   8921194.886 6
  20552067.100    -2213357.467 7  -1684118.311 9
  23356209.600    -2536619.666 5  -1833121.269 5
  19985158.732   -13035223.696 7 -10077423.640 9
 94  2 17 22 59 29.9980000  0  7 31  2 16 18 19  7 27
  22346145.022    -2196621.913 6  -1620324.239 7
  21167327.170   -16186999.550 7 -12482937.591 9
  23552092.053    -2513515.228 5  -1896002.772 4
  22355473.459    11523567.727 6   8994555.623 6
  20555643.178    -2194563.861 7  -1669473.949 9
  23334594.850    -2650198.860 5  -1921624.474 5
  19979732.576   -13063738.213 7 -10099642.735 9
